M I D A S
Marine Information and Data Acquisition System
Tripno 1998 of the Zeeleeuw from 2010-11-29 08:01:01 to 2010-11-29 15:53:27
Back to CruiseResearch ActivitiesStationsMapUnderway DataData graphs

EquipmentUnitsComment
TimeDGPSUTC
LatitudeDGPSDM.mWGS84
LongitudeDGPSDM.mWGS84
TemperatureSBE03/SBE38deg celciusITS90
ConductivitySBE21S/mITS90
SalinitySBE21 Practical Salinity Units
ChlorophylAChelsea fluorimeterg/lCalibrated in Aceton
Missing or incorrect values are displayed as -999
Sea surface data collected by the RV Zeeleeuw from 2010-11-29 07:42:19 to 2010-11-29 16:04:58
                                                                                    Next 1000 lines
Time Latitude Longitude Temperature Conductivity Salinity ChlorophylA
2010-11-29 07:42:29 51°13.663 2°55.96 7.555 0.068807 0.563114 -0.652328
2010-11-29 07:42:35 51°13.663 2°55.96 7.558 0.068807 0.563129 -0.652328
2010-11-29 07:42:40 51°13.663 2°55.96 7.5566 0.068807 0.563129 -0.652328
2010-11-29 07:42:45 51°13.663 2°55.96 7.5572 0.068807 0.563129 -0.652328
2010-11-29 07:42:49 51°13.663 2°55.96 7.5379 0.068807 0.563144 -0.652328
2010-11-29 07:42:54 51°13.663 2°55.96 7.5233 0.068807 0.563144 -0.687152
2010-11-29 07:43:00 51°13.662 2°55.96 7.5467 0.068807 0.563129 -0.652328
2010-11-29 07:43:04 51°13.662 2°55.96 7.5442 0.068807 0.563129 -0.687152
2010-11-29 07:43:09 51°13.662 2°55.96 7.5381 0.068807 0.563129 -0.687152
2010-11-29 07:43:14 51°13.662 2°55.96 7.5475 0.068807 0.563144 -0.652328
2010-11-29 07:43:19 51°13.662 2°55.96 7.5485 0.068807 0.563144 -0.652328
2010-11-29 07:43:25 51°13.662 2°55.96 7.559 0.068807 0.563159 -0.687152
2010-11-29 07:43:29 51°13.662 2°55.96 7.5588 0.068807 0.563144 -0.687152
2010-11-29 07:43:34 51°13.662 2°55.96 7.5656 0.068807 0.563159 -0.652328
2010-11-29 07:43:40 51°13.662 2°55.96 7.5659 0.068807 0.563159 -0.652328
2010-11-29 07:43:45 51°13.662 2°55.96 7.5665 0.068807 0.563159 -0.687152
2010-11-29 07:43:49 51°13.662 2°55.96 7.5637 0.068807 0.563159 -0.652328
2010-11-29 07:43:54 51°13.662 2°55.959 7.5664 0.068807 0.563159 -0.652328
2010-11-29 07:44:00 51°13.662 2°55.959 7.5685 0.068807 0.563159 -0.652328
2010-11-29 07:44:05 51°13.662 2°55.959 7.5696 0.068807 0.563159 -0.687152
2010-11-29 07:44:09 51°13.662 2°55.959 7.5691 0.068807 0.563159 -0.687152
2010-11-29 07:44:14 51°13.662 2°55.959 7.57 0.068807 0.563144 -0.687152
2010-11-29 07:44:20 51°13.662 2°55.959 7.5683 0.068807 0.563159 -0.687152
2010-11-29 07:44:24 51°13.662 2°55.959 7.5698 0.068807 0.563174 -0.687152
2010-11-29 07:44:29 51°13.663 2°55.959 7.571 0.068807 0.563159 -0.652328
2010-11-29 07:44:34 51°13.663 2°55.959 7.5714 0.068807 0.563174 -0.652328
2010-11-29 07:44:40 51°13.662 2°55.959 7.5749 0.068807 0.563174 -0.652328
2010-11-29 07:44:45 51°13.663 2°55.959 7.5735 0.068807 0.563159 -0.652328
2010-11-29 07:44:49 51°13.663 2°55.959 7.5749 0.068807 0.563189 -0.617504
2010-11-29 07:44:55 51°13.663 2°55.959 7.5733 0.068807 0.563174 -0.652328
2010-11-29 07:45:00 51°13.663 2°55.959 7.5737 0.068807 0.563174 -0.652328
2010-11-29 07:45:04 51°13.663 2°55.959 7.5786 0.068807 0.563174 -0.687152
2010-11-29 07:45:10 51°13.663 2°55.959 7.5802 0.068807 0.563174 -0.687152
2010-11-29 07:45:15 51°13.663 2°55.959 7.5826 0.068807 0.563189 -0.652328
2010-11-29 07:45:21 51°13.662 2°55.958 7.5823 0.068807 0.563189 -0.652328
2010-11-29 07:45:25 51°13.662 2°55.958 7.5834 0.068807 0.563189 -0.652328
2010-11-29 07:45:30 51°13.662 2°55.958 7.5811 0.068807 0.563189 -0.652328
2010-11-29 07:45:35 51°13.662 2°55.958 7.579 0.068807 0.563189 -0.687152
2010-11-29 07:45:40 51°13.662 2°55.959 7.579 0.068807 0.563189 -0.687152
2010-11-29 07:45:45 51°13.662 2°55.959 7.5763 0.068807 0.563189 -0.687152
2010-11-29 07:45:49 51°13.662 2°55.959 7.5774 0.068807 0.563204 -0.652328
2010-11-29 07:45:54 51°13.662 2°55.959 7.579 0.068703 0.562316 -0.652328
2010-11-29 07:45:59 51°13.662 2°55.959 7.5793 0.068807 0.563204 -0.652328
2010-11-29 07:46:05 51°13.662 2°55.959 7.5818 0.068807 0.563204 -0.687152
2010-11-29 07:46:09 51°13.662 2°55.959 7.5833 0.068807 0.563204 -0.687152
2010-11-29 07:46:13 51°13.662 2°55.959 7.5861 0.068807 0.563204 -0.652328
2010-11-29 07:46:19 51°13.662 2°55.959 7.5888 0.068807 0.563204 -0.687152
2010-11-29 07:46:25 51°13.662 2°55.959 7.59 0.068807 0.563204 -0.652328
2010-11-29 07:46:29 51°13.662 2°55.959 7.5901 0.068807 0.563219 -0.652328
2010-11-29 07:46:34 51°13.662 2°55.959 7.5906 0.068807 0.563219 -0.652328
2010-11-29 07:46:39 51°13.661 2°55.959 7.5933 0.068807 0.563219 -0.652328
2010-11-29 07:46:45 51°13.662 2°55.959 7.5954 0.068807 0.563219 -0.652328
2010-11-29 07:46:49 51°13.662 2°55.959 7.5978 0.068807 0.563219 -0.652328
2010-11-29 07:46:54 51°13.662 2°55.959 7.5977 0.068807 0.563219 -0.687152
2010-11-29 07:47:00 51°13.662 2°55.959 7.5994 0.068807 0.563219 -0.652328
2010-11-29 07:47:04 51°13.662 2°55.959 7.6009 0.068807 0.563219 -0.687152
2010-11-29 07:47:09 51°13.662 2°55.959 7.6027 0.068807 0.563219 -0.687152
2010-11-29 07:47:15 51°13.662 2°55.959 7.6023 0.068807 0.563204 -0.652328
2010-11-29 07:47:19 51°13.662 2°55.96 7.6013 0.068807 0.563219 -0.617504
2010-11-29 07:47:25 51°13.662 2°55.96 7.6026 0.068807 0.563234 -0.652328
2010-11-29 07:47:29 51°13.662 2°55.96 7.5945 0.068807 0.563234 -0.652328
2010-11-29 07:47:33 51°13.662 2°55.96 7.6026 0.068807 0.563234 -0.687152
2010-11-29 07:47:40 51°13.662 2°55.96 7.5957 0.068807 0.563234 -0.687152
2010-11-29 07:47:45 51°13.662 2°55.96 7.606 0.068807 0.563234 -0.652328
2010-11-29 07:47:49 51°13.662 2°55.96 7.6092 0.068807 0.563219 -0.652328
2010-11-29 07:47:54 51°13.662 2°55.96 7.6163 0.068807 0.563219 -0.687152
2010-11-29 07:48:00 51°13.662 2°55.96 7.6109 0.068703 0.562346 -0.687152
2010-11-29 07:48:04 51°13.662 2°55.96 7.6145 0.068807 0.563234 -0.652328
2010-11-29 07:48:08 51°13.662 2°55.959 7.6183 0.068807 0.563234 -0.652328
2010-11-29 07:48:13 51°13.662 2°55.959 7.6186 0.068807 0.563249 -0.687152
2010-11-29 07:48:18 51°13.662 2°55.959 7.6195 0.068807 0.563249 -0.652328
2010-11-29 07:48:25 51°13.662 2°55.959 7.6201 0.068807 0.563234 -0.652328
2010-11-29 07:48:29 51°13.662 2°55.96 7.6223 0.068807 0.563249 -0.652328
2010-11-29 07:48:34 51°13.662 2°55.96 7.6135 0.068703 0.562346 -0.617504
2010-11-29 07:48:39 51°13.662 2°55.96 7.6113 0.068703 0.562346 -0.617504
2010-11-29 07:48:43 51°13.662 2°55.96 7.6118 0.068807 0.563234 -0.652328
2010-11-29 07:48:48 51°13.662 2°55.96 7.6153 0.068807 0.563249 -0.687152
2010-11-29 07:48:53 51°13.662 2°55.96 7.6181 0.068703 0.562361 -0.652328
2010-11-29 07:48:58 51°13.662 2°55.961 7.6213 0.068703 0.562361 -0.652328
2010-11-29 07:49:03 51°13.662 2°55.96 7.6183 0.068703 0.562361 -0.652328
2010-11-29 07:49:09 51°13.663 2°55.96 7.6186 0.068703 0.562361 -0.652328
2010-11-29 07:49:14 51°13.663 2°55.96 7.6209 0.068807 0.563249 -0.652328
2010-11-29 07:49:19 51°13.663 2°55.96 7.6236 0.068807 0.563264 -0.652328
2010-11-29 07:49:24 51°13.663 2°55.96 7.6247 0.068807 0.563264 -0.652328
2010-11-29 07:49:28 51°13.663 2°55.96 7.628 0.068703 0.562376 -0.652328
2010-11-29 07:49:33 51°13.663 2°55.96 7.6305 0.068807 0.563264 -0.687152
2010-11-29 07:49:39 51°13.663 2°55.96 7.6302 0.068807 0.563264 -0.687152
2010-11-29 07:49:43 51°13.663 2°55.96 7.6309 0.068807 0.563279 -0.652328
2010-11-29 07:49:49 51°13.662 2°55.96 7.6326 0.068703 0.562391 -0.687152
2010-11-29 07:49:54 51°13.663 2°55.96 7.6316 0.068703 0.562391 -0.652328
2010-11-29 07:49:59 51°13.662 2°55.96 7.6278 0.068703 0.562406 -0.652328
2010-11-29 07:50:05 51°13.662 2°55.96 7.6286 0.068807 0.563279 -0.652328
2010-11-29 07:50:09 51°13.662 2°55.96 7.6324 0.068807 0.563279 -0.652328
2010-11-29 07:50:14 51°13.662 2°55.96 7.6326 0.068807 0.563279 -0.652328
2010-11-29 07:50:20 51°13.662 2°55.96 7.6332 0.068807 0.563294 -0.687152
2010-11-29 07:50:24 51°13.662 2°55.96 7.6356 0.068807 0.563294 -0.652328
2010-11-29 07:50:29 51°13.662 2°55.96 7.6348 0.068807 0.563294 -0.687152
2010-11-29 07:50:34 51°13.662 2°55.96 7.6347 0.068807 0.563294 -0.652328
2010-11-29 07:50:39 51°13.662 2°55.96 7.6349 0.068807 0.563294 -0.652328
2010-11-29 07:50:45 51°13.662 2°55.96 7.6381 0.068703 0.562406 -0.652328
2010-11-29 07:50:50 51°13.662 2°55.96 7.6363 0.068703 0.562421 -0.617504
2010-11-29 07:50:55 51°13.662 2°55.96 7.6361 0.068703 0.562406 -0.652328
2010-11-29 07:51:00 51°13.662 2°55.96 7.6393 0.068703 0.562421 -0.652328
2010-11-29 07:51:05 51°13.662 2°55.96 7.6415 0.068807 0.563309 -0.652328
2010-11-29 07:51:09 51°13.662 2°55.96 7.6429 0.068807 0.563309 -0.652328
2010-11-29 07:51:14 51°13.662 2°55.96 7.6423 0.068807 0.563309 -0.652328
2010-11-29 07:51:19 51°13.662 2°55.96 7.6424 0.068807 0.563309 -0.687152
2010-11-29 07:51:24 51°13.662 2°55.96 7.6435 0.068807 0.563309 -0.652328
2010-11-29 07:51:29 51°13.662 2°55.96 7.6462 0.068807 0.563309 -0.652328
2010-11-29 07:51:34 51°13.662 2°55.96 7.6456 0.068807 0.563324 -0.687152
2010-11-29 07:51:39 51°13.662 2°55.96 7.6464 0.068807 0.563324 -0.687152
2010-11-29 07:51:44 51°13.661 2°55.959 7.6512 0.068807 0.563324 -0.652328
2010-11-29 07:51:49 51°13.662 2°55.96 7.6541 0.068703 0.562436 -0.652328
2010-11-29 07:51:54 51°13.662 2°55.96 7.652 0.068703 0.562436 -0.652328
2010-11-29 07:52:00 51°13.662 2°55.959 7.6516 0.068807 0.563309 -0.652328
2010-11-29 07:52:04 51°13.662 2°55.959 7.6552 0.068703 0.562436 -0.652328
2010-11-29 07:52:09 51°13.662 2°55.96 7.657 0.068703 0.562436 -0.652328
2010-11-29 07:52:15 51°13.661 2°55.96 7.6605 0.068807 0.563324 -0.652328
2010-11-29 07:52:20 51°13.661 2°55.959 7.6603 0.068703 0.562436 -0.652328
2010-11-29 07:52:25 51°13.661 2°55.96 7.6657 0.068703 0.562436 -0.687152
2010-11-29 07:52:29 51°13.661 2°55.959 7.6617 0.068703 0.562436 -0.652328
2010-11-29 07:52:34 51°13.662 2°55.959 7.6619 0.068703 0.562436 -0.652328
2010-11-29 07:52:39 51°13.661 2°55.959 7.6649 0.068703 0.562436 -0.652328
2010-11-29 07:52:44 51°13.661 2°55.959 7.6665 0.068703 0.562436 -0.687152
2010-11-29 07:52:49 51°13.662 2°55.959 7.6667 0.068703 0.562451 -0.617504
2010-11-29 07:52:55 51°13.662 2°55.959 7.6653 0.068703 0.562451 -0.652328
2010-11-29 07:53:00 51°13.661 2°55.959 7.6692 0.068703 0.562451 -0.652328
2010-11-29 07:53:05 51°13.661 2°55.959 7.674 0.068703 0.562451 -0.652328
2010-11-29 07:53:09 51°13.662 2°55.959 7.679 0.068703 0.562451 -0.652328
2010-11-29 07:53:14 51°13.661 2°55.959 7.6788 0.068807 0.56334 -0.652328
2010-11-29 07:53:19 51°13.661 2°55.959 7.6766 0.068703 0.562451 -0.652328
2010-11-29 07:53:24 51°13.661 2°55.959 7.6779 0.068703 0.562451 -0.687152
2010-11-29 07:53:29 51°13.661 2°55.959 7.6789 0.068807 0.56334 -0.652328
2010-11-29 07:53:34 51°13.661 2°55.96 7.6779 0.068703 0.562451 -0.652328
2010-11-29 07:53:39 51°13.661 2°55.96 7.6779 0.068703 0.562451 -0.652328
2010-11-29 07:53:45 51°13.661 2°55.96 7.6703 0.068807 0.56334 -0.652328
2010-11-29 07:53:49 51°13.661 2°55.96 7.6754 0.068703 0.562466 -0.652328
2010-11-29 07:53:55 51°13.661 2°55.96 7.6775 0.068703 0.562451 -0.652328
2010-11-29 07:54:00 51°13.662 2°55.96 7.684 0.068703 0.562466 -0.652328
2010-11-29 07:54:05 51°13.662 2°55.96 7.6878 0.068703 0.562466 -0.652328
2010-11-29 07:54:09 51°13.662 2°55.96 7.6881 0.068703 0.562466 -0.652328
2010-11-29 07:54:14 51°13.662 2°55.96 7.6895 0.068703 0.562466 -0.687152
2010-11-29 07:54:20 51°13.662 2°55.96 7.6918 0.068703 0.562466 -0.687152
2010-11-29 07:54:24 51°13.662 2°55.96 7.6923 0.068703 0.562481 -0.652328
2010-11-29 07:54:29 51°13.662 2°55.96 7.6918 0.068703 0.562481 -0.687152
2010-11-29 07:54:34 51°13.662 2°55.96 7.6915 0.068703 0.562466 -0.652328
2010-11-29 07:54:40 51°13.661 2°55.96 7.6927 0.068703 0.562466 -0.652328
2010-11-29 07:54:44 51°13.661 2°55.96 7.6908 0.068703 0.562481 -0.652328
2010-11-29 07:54:49 51°13.661 2°55.96 7.6769 0.068703 0.562481 -0.652328
2010-11-29 07:54:54 51°13.661 2°55.959 7.6692 0.068703 0.562481 -0.652328
2010-11-29 07:54:59 51°13.661 2°55.959 7.6587 0.068703 0.562481 -0.652328
2010-11-29 07:55:04 51°13.661 2°55.958 7.6522 0.068703 0.562481 -0.652328
2010-11-29 07:55:09 51°13.661 2°55.957 7.6506 0.068703 0.562481 -0.652328
2010-11-29 07:55:14 51°13.662 2°55.956 7.6618 0.068703 0.562496 -0.652328
2010-11-29 07:55:19 51°13.663 2°55.954 7.6908 0.068703 0.562496 -0.652328
2010-11-29 07:55:24 51°13.664 2°55.951 7.6923 0.068807 0.563385 -0.687152
2010-11-29 07:55:29 51°13.665 2°55.948 7.6999 0.068703 0.562496 -0.652328
2010-11-29 07:55:34 51°13.665 2°55.944 7.6913 0.068703 0.562511 -0.652328
2010-11-29 07:55:40 51°13.666 2°55.94 7.6891 0.068703 0.562511 -0.652328
2010-11-29 07:55:45 51°13.668 2°55.935 7.6875 0.068703 0.562511 -0.687152
2010-11-29 07:55:51 51°13.669 2°55.929 7.6934 0.068703 0.562496 -0.652328
2010-11-29 07:55:57 51°13.671 2°55.922 7.6857 0.068703 0.562496 -0.687152
2010-11-29 07:56:02 51°13.672 2°55.916 7.6913 0.068703 0.562511 -0.687152
2010-11-29 07:56:08 51°13.673 2°55.908 7.6903 0.068703 0.562526 -0.687152
2010-11-29 07:56:13 51°13.675 2°55.902 7.7013 0.068703 0.562526 -0.687152
2010-11-29 07:56:18 51°13.676 2°55.894 7.6925 0.068703 0.562511 -0.652328
2010-11-29 07:56:23 51°13.678 2°55.886 7.7084 0.068703 0.562511 -0.687152
2010-11-29 07:56:28 51°13.679 2°55.878 7.696 0.068703 0.562511 -0.652328
2010-11-29 07:56:33 51°13.68 2°55.87 7.7151 0.068703 0.562511 -0.652328
2010-11-29 07:56:38 51°13.68 2°55.861 7.7166 0.068703 0.562511 -0.652328
2010-11-29 07:56:43 51°13.683 2°55.852 7.7196 0.068703 0.562511 -0.652328
2010-11-29 07:56:48 51°13.683 2°55.843 7.7206 0.068703 0.562526 -0.652328
2010-11-29 07:56:53 51°13.684 2°55.834 7.7195 0.068703 0.562511 -0.687152
2010-11-29 07:56:58 51°13.685 2°55.826 7.7188 0.068703 0.562511 -0.652328
2010-11-29 07:57:03 51°13.686 2°55.817 7.7198 0.068703 0.562526 -0.652328
2010-11-29 07:57:08 51°13.687 2°55.809 7.7207 0.068703 0.562526 -0.687152
2010-11-29 07:57:13 51°13.688 2°55.8 7.7213 0.068703 0.562526 -0.687152
2010-11-29 07:57:18 51°13.689 2°55.793 7.7213 0.068703 0.562526 -0.652328
2010-11-29 07:57:23 51°13.689 2°55.785 7.7212 0.068703 0.562511 -0.652328
2010-11-29 07:57:28 51°13.689 2°55.777 7.7091 0.068703 0.562511 -0.652328
2010-11-29 07:57:33 51°13.689 2°55.769 7.7203 0.068703 0.562511 -0.652328
2010-11-29 07:57:38 51°13.69 2°55.762 7.7235 0.068703 0.562526 -0.687152
2010-11-29 07:57:43 51°13.691 2°55.755 7.7319 0.068703 0.562526 -0.687152
2010-11-29 07:57:48 51°13.691 2°55.748 7.722 0.068703 0.562526 -0.652328
2010-11-29 07:57:53 51°13.691 2°55.742 7.7287 0.068703 0.562526 -0.652328
2010-11-29 07:57:57 51°13.692 2°55.737 7.7345 0.068703 0.562526 -0.617504
2010-11-29 07:58:03 51°13.692 2°55.732 7.7486 0.068703 0.562541 -0.652328
2010-11-29 07:58:07 51°13.692 2°55.73 7.6475 0.068703 0.562511 -0.652328
2010-11-29 07:58:13 51°13.692 2°55.729 7.3808 0.068703 0.562511 -0.652328
2010-11-29 07:58:17 51°13.693 2°55.729 7.2929 0.068703 0.561746 -0.58268
2010-11-29 07:58:22 51°13.693 2°55.73 7.1578 0.068807 0.562229 -0.547855
2010-11-29 07:58:27 51°13.693 2°55.73 7.0802 0.068807 0.562364 -0.513031
2010-11-29 07:58:32 51°13.695 2°55.731 7.044 0.098674 0.802781 -0.129967
2010-11-29 07:58:37 51°13.696 2°55.733 7.0064 1.442248 13.230156 0.078977
2010-11-29 07:58:41 51°13.697 2°55.734 6.9404 1.442248 13.230156 0.078977
2010-11-29 07:58:46 51°13.698 2°55.734 6.9042 1.600926 14.84451 0.078977
2010-11-29 07:58:51 51°13.7 2°55.735 6.8699 1.616249 14.718836 0.009329
2010-11-29 07:58:56 51°13.701 2°55.736 6.8546 1.719461 15.721785 0.009329
2010-11-29 07:59:01 51°13.701 2°55.736 6.8416 1.924937 17.786264 0.009329
2010-11-29 07:59:05 51°13.702 2°55.735 6.8242 2.187842 20.499471 -0.060319
2010-11-29 07:59:10 51°13.702 2°55.735 6.8209 2.187842 20.499471 -0.060319
2010-11-29 07:59:15 51°13.702 2°55.734 6.8194 2.457135 23.324573 -0.025495
2010-11-29 07:59:20 51°13.701 2°55.733 6.8031 2.585108 24.708737 -0.025495
2010-11-29 07:59:25 51°13.7 2°55.732 6.801 2.630055 25.224037 -0.060319
2010-11-29 07:59:29 51°13.699 2°55.731 6.7952 2.656688 25.533307 -0.025495
2010-11-29 07:59:34 51°13.698 2°55.73 6.7929 2.667532 25.677072 -0.025495
2010-11-29 07:59:40 51°13.696 2°55.729 6.8228 2.667532 25.677072 -0.025495
2010-11-29 07:59:45 51°13.695 2°55.728 6.8263 2.675954 25.789819 -0.025495
2010-11-29 07:59:49 51°13.694 2°55.727 6.851 2.684271 25.89016 -0.025495
2010-11-29 07:59:54 51°13.694 2°55.727 6.8703 2.682587 25.881897 -0.060319
2010-11-29 08:00:00 51°13.694 2°55.726 6.8746 2.683324 25.895487 -0.025495
2010-11-29 08:00:05 51°13.695 2°55.725 6.8865 2.699958 26.081816 -0.025495
2010-11-29 08:00:10 51°13.697 2°55.724 6.8927 2.699958 26.081816 -0.025495
2010-11-29 08:00:14 51°13.698 2°55.724 6.8945 2.709539 26.186903 -0.025495
2010-11-29 08:00:19 51°13.701 2°55.723 6.8889 2.722489 26.324004 0.009329
2010-11-29 08:00:25 51°13.705 2°55.72 6.8738 2.742072 26.523938 -0.025495
2010-11-29 08:00:29 51°13.708 2°55.719 6.8623 2.76829 26.792648 -0.060319
2010-11-29 08:00:34 51°13.712 2°55.716 6.8476 2.799774 27.115669 -0.060319
2010-11-29 08:00:40 51°13.718 2°55.712 6.8407 2.799774 27.115669 -0.060319
2010-11-29 08:00:45 51°13.723 2°55.709 6.8363 2.816412 27.284458 -0.095143
2010-11-29 08:00:49 51°13.727 2°55.706 6.8477 2.835262 27.474185 -0.095143
2010-11-29 08:00:54 51°13.733 2°55.7 6.8594 2.838 27.497306 -0.095143
2010-11-29 08:01:00 51°13.741 2°55.695 6.8664 2.857167 27.700685 -0.095143
2010-11-29 08:01:04 51°13.746 2°55.691 6.8635 2.855061 27.682283 -0.060319
2010-11-29 08:01:09 51°13.753 2°55.685 6.8578 2.855061 27.682283 -0.060319
2010-11-29 08:01:14 51°13.761 2°55.68 6.851 2.836 27.486136 -0.060319
2010-11-29 08:01:20 51°13.77 2°55.672 6.8361 2.839264 27.528496 -0.025495
2010-11-29 08:01:24 51°13.776 2°55.667 6.8208 2.83263 27.463053 -0.060319
2010-11-29 08:01:29 51°13.783 2°55.659 6.8034 2.842529 27.568156 -0.095143
2010-11-29 08:01:34 51°13.791 2°55.652 6.7821 2.861485 27.768117 -0.060319
2010-11-29 08:01:36 51°13.796 2°55.649 6.7741 2.861485 27.768117 -0.060319
2010-11-29 08:01:44 51°13.81 2°55.644 6.7989 2.861275 27.772737 0.009329
2010-11-29 08:01:44 51°13.81 2°55.644 6.826 2.815676 27.307669 -0.025495
2010-11-29 08:01:44 51°13.81 2°55.644 6.7765 2.867804 27.83228 -0.025495
2010-11-29 08:01:44 51°13.81 2°55.644 6.8161 2.7963 27.117527 0.009329
2010-11-29 08:01:44 51°13.81 2°55.644 6.78 2.866014 27.813814 -0.025495
2010-11-29 08:01:44 51°13.81 2°55.644 6.8221 2.816834 27.329524 -0.025495
2010-11-29 08:01:44 51°13.81 2°55.644 6.7878 2.808936 27.256599 -0.025495
2010-11-29 08:01:44 51°13.81 2°55.644 6.7739 2.808936 27.256599 -0.025495
2010-11-29 08:01:44 51°13.81 2°55.644 6.7856 2.870753 27.866591 0.009329
2010-11-29 08:01:44 51°13.81 2°55.644 6.8182 2.846531 27.622555 0.009329
2010-11-29 08:01:44 51°13.81 2°55.644 6.8118 2.846531 27.622555 0.009329
2010-11-29 08:01:44 51°13.81 2°55.644 6.7711 2.8241 27.411963 -0.060319
2010-11-29 08:01:44 51°13.81 2°55.644 6.8033 2.791667 27.072068 -0.025495
2010-11-29 08:02:49 51°13.81 2°55.644 6.7632 2.822731 27.388498 -0.025495
2010-11-29 08:02:54 51°13.81 2°55.644 6.7681 2.832525 27.487096 -0.025495
2010-11-29 08:03:00 51°13.81 2°55.644 6.7735 2.844214 27.608713 -0.025495
2010-11-29 08:03:05 51°13.81 2°55.644 6.7694 2.835579 27.517711 -0.060319
2010-11-29 08:03:09 51°13.81 2°55.644 6.7688 2.835579 27.517711 -0.060319
2010-11-29 08:03:14 51°13.81 2°55.644 6.7622 2.826312 27.424741 -0.025495
2010-11-29 08:03:20 51°13.81 2°55.644 6.7592 2.813148 27.293511 -0.060319
2010-11-29 08:03:25 51°13.81 2°55.644 6.7572 2.803987 27.201675 -0.060319
2010-11-29 08:03:29 51°13.81 2°55.644 6.7611 2.803461 27.203467 -0.025495
2010-11-29 08:03:35 51°13.81 2°55.644 6.7751 2.79272 27.090031 -0.025495
2010-11-29 08:03:39 51°14.046 2°55.462 6.7885 2.79272 27.090031 -0.025495
2010-11-29 08:03:44 51°14.058 2°55.453 6.7947 2.794299 27.106907 -0.025495
2010-11-29 08:03:48 51°14.067 2°55.446 6.7988 2.810095 27.27642 -0.060319
2010-11-29 08:03:53 51°14.079 2°55.437 6.8002 2.796511 27.1339 0.009329
2010-11-29 08:03:59 51°14.09 2°55.429 6.8004 2.805461 27.232282 -0.025495
2010-11-29 08:04:05 51°14.107 2°55.418 6.797 2.814202 27.327796 -0.060319
2010-11-29 08:04:09 51°14.117 2°55.41 6.7949 2.814202 27.327796 -0.060319
2010-11-29 08:04:14 51°14.129 2°55.401 6.7961 2.801776 27.190852 -0.025495
2010-11-29 08:04:19 51°14.141 2°55.391 6.7994 2.811253 27.28813 -0.060319
2010-11-29 08:04:24 51°14.153 2°55.382 6.8008 2.813991 27.310638 -0.060319
2010-11-29 08:04:29 51°14.165 2°55.371 6.8019 2.819888 27.366918 -0.060319
2010-11-29 08:04:34 51°14.177 2°55.361 6.8016 2.82747 27.445286 -0.095143
2010-11-29 08:04:39 51°14.189 2°55.35 6.8038 2.82747 27.445286 -0.095143
2010-11-29 08:04:44 51°14.201 2°55.339 6.808 2.840739 27.585886 -0.060319
2010-11-29 08:04:49 51°14.213 2°55.328 6.8141 2.842635 27.606173 -0.060319
2010-11-29 08:04:54 51°14.225 2°55.317 6.8249 2.838528 27.561536 -0.095143
2010-11-29 08:04:59 51°14.236 2°55.305 6.8396 2.827997 27.448197 -0.060319
2010-11-29 08:05:04 51°14.248 2°55.294 6.8534 2.84611 27.639948 -0.095143
2010-11-29 08:05:09 51°14.26 2°55.282 6.8743 2.84611 27.639948 -0.095143
2010-11-29 08:05:14 51°14.272 2°55.271 6.8859 2.850007 27.680973 -0.095143
2010-11-29 08:05:20 51°14.287 2°55.258 6.9024 2.837159 27.542792 -0.060319
2010-11-29 08:05:24 51°14.297 2°55.249 6.9174 2.844741 27.621872 -0.129967
2010-11-29 08:05:29 51°14.309 2°55.237 6.9369 2.839581 27.561877 -0.095143
2010-11-29 08:05:34 51°14.321 2°55.225 6.9583 2.858642 27.758995 -0.095143
2010-11-29 08:05:39 51°14.333 2°55.213 6.9719 2.858642 27.758995 -0.095143
2010-11-29 08:05:45 51°14.347 2°55.198 6.9867 2.876967 27.944164 -0.129967
2010-11-29 08:05:49 51°14.357 2°55.188 6.9954 2.890237 28.0759 -0.095143
2010-11-29 08:05:54 51°14.369 2°55.176 7.0036 2.905825 28.22897 -0.129967
2010-11-29 08:05:59 51°14.381 2°55.164 7.0171 2.905614 28.214152 -0.129967
2010-11-29 08:06:04 51°14.393 2°55.152 7.029 2.947956 28.653928 -0.095143
2010-11-29 08:06:09 51°14.405 2°55.14 7.0362 2.947956 28.653928 -0.095143
2010-11-29 08:06:14 51°14.417 2°55.128 7.0405 2.96681 28.836313 -0.129967
2010-11-29 08:06:19 51°14.429 2°55.116 7.0446 2.991038 29.081315 -0.129967
2010-11-29 08:06:24 51°14.441 2°55.103 7.0462 3.003468 29.201106 -0.095143
2010-11-29 08:06:29 51°14.453 2°55.091 7.0447 3.034545 29.521182 -0.095143
2010-11-29 08:06:34 51°14.464 2°55.078 7.0416 3.051296 29.689569 -0.095143
2010-11-29 08:06:39 51°14.476 2°55.065 7.0365 3.051296 29.689569 -0.095143
2010-11-29 08:06:44 51°14.488 2°55.051 7.0333 3.066466 29.842443 -0.095143
2010-11-29 08:06:49 51°14.499 2°55.037 7.0287 3.082059 29.995435 -0.095143
2010-11-29 08:06:54 51°14.511 2°55.024 7.0204 3.0986 30.164548 -0.060319
2010-11-29 08:06:59 51°14.524 2°55.01 7.0116 3.111454 30.29847 -0.095143
2010-11-29 08:07:04 51°14.536 2°54.996 7.0073 3.116933 30.350752 -0.129967
2010-11-29 08:07:09 51°14.549 2°54.983 7.009 3.116933 30.350752 -0.129967
2010-11-29 08:07:14 51°14.561 2°54.97 7.0143 3.130209 30.490762 -0.095143
2010-11-29 08:07:20 51°14.577 2°54.953 7.0216 3.120305 30.38482 -0.095143
2010-11-29 08:07:24 51°14.587 2°54.942 7.028 3.123677 30.424879 -0.095143
2010-11-29 08:07:29 51°14.6 2°54.929 7.0359 3.120621 30.394209 -0.095143
2010-11-29 08:07:34 51°14.613 2°54.916 7.0459 3.132422 30.525873 -0.129967
2010-11-29 08:07:39 51°14.626 2°54.901 7.052 3.132422 30.525873 -0.129967
2010-11-29 08:07:44 51°14.639 2°54.887 7.0605 3.130209 30.50728 -0.095143
2010-11-29 08:07:49 51°14.652 2°54.871 7.0712 3.125995 30.46485 -0.095143
2010-11-29 08:07:54 51°14.665 2°54.856 7.0784 3.126416 30.470144 -0.129967
2010-11-29 08:08:00 51°14.68 2°54.835 7.0818 3.127891 30.481542 -0.129967
2010-11-29 08:08:04 51°14.69 2°54.822 7.085 3.128207 30.481196 -0.129967
2010-11-29 08:08:09 51°14.703 2°54.805 7.0846 3.128207 30.481196 -0.129967
2010-11-29 08:08:14 51°14.717 2°54.789 7.084 3.141378 30.616408 -0.129967
2010-11-29 08:08:19 51°14.73 2°54.773 7.0782 3.156446 30.775139 -0.095143
2010-11-29 08:08:25 51°14.747 2°54.754 7.0712 3.155603 30.75696 -0.095143
2010-11-29 08:08:29 51°14.758 2°54.74 7.0694 3.167405 30.873637 -0.095143
2010-11-29 08:08:34 51°14.772 2°54.723 7.0665 3.188585 31.094571 -0.129967
2010-11-29 08:08:39 51°14.786 2°54.706 7.0689 3.188585 31.094571 -0.129967
2010-11-29 08:08:44 51°14.801 2°54.69 7.0708 3.183211 31.029696 -0.164791
2010-11-29 08:08:49 51°14.815 2°54.674 7.0932 3.197753 31.182821 -0.129967
2010-11-29 08:08:54 51°14.83 2°54.658 7.1048 3.203865 31.246509 -0.164791
2010-11-29 08:08:59 51°14.845 2°54.642 7.165 3.196067 31.163087 -0.164791
2010-11-29 08:09:04 51°14.86 2°54.626 7.2256 3.201546 31.225315 -0.129967
2010-11-29 08:09:09 51°14.875 2°54.611 7.2582 3.201546 31.225315 -0.129967
2010-11-29 08:09:14 51°14.89 2°54.594 7.2844 3.207869 31.296678 -0.199615
2010-11-29 08:09:19 51°14.905 2°54.578 7.3101 3.208607 31.305416 -0.199615
2010-11-29 08:09:24 51°14.92 2°54.562 7.3225 3.208185 31.300863 -0.164791
2010-11-29 08:09:29 51°14.936 2°54.546 7.3307 3.201336 31.218434 -0.129967
2010-11-29 08:09:34 51°14.951 2°54.53 7.3353 3.189112 31.070458 -0.129967
2010-11-29 08:09:39 51°14.966 2°54.514 7.3376 3.189112 31.070458 -0.129967
2010-11-29 08:09:44 51°14.982 2°54.499 7.3444 3.218301 31.354666 -0.199615
2010-11-29 08:09:49 51°14.996 2°54.482 7.3491 3.236743 31.523543 -0.234439
2010-11-29 08:09:54 51°15.012 2°54.466 7.352 3.260139 31.734824 -0.164791
2010-11-29 08:10:00 51°15.03 2°54.446 7.3489 3.281638 31.933974 -0.234439
2010-11-29 08:10:04 51°15.042 2°54.433 7.3479 3.291545 32.01187 -0.269263
2010-11-29 08:10:09 51°15.058 2°54.417 7.3455 3.291545 32.01187 -0.269263
2010-11-29 08:10:14 51°15.073 2°54.4 7.3434 3.311886 32.216289 -0.234439
2010-11-29 08:10:19 51°15.088 2°54.385 7.3435 3.326958 32.361504 -0.234439
2010-11-29 08:10:25 51°15.107 2°54.365 7.3426 3.333493 32.421713 -0.269263
2010-11-29 08:10:29 51°15.119 2°54.352 7.3387 3.340028 32.48349 -0.269263
2010-11-29 08:10:34 51°15.135 2°54.336 7.3408 3.334757 32.421113 -0.269263
2010-11-29 08:10:40 51°15.153 2°54.317 7.3427 3.334757 32.421113 -0.269263
2010-11-29 08:10:44 51°15.165 2°54.304 7.3432 3.3473 32.551626 -0.269263
2010-11-29 08:10:49 51°15.18 2°54.287 7.3417 3.346773 32.545942 -0.304087
2010-11-29 08:10:54 51°15.195 2°54.27 7.3363 3.35236 32.603821 -0.338911
2010-11-29 08:10:59 51°15.21 2°54.253 7.3315 3.353625 32.619059 -0.269263
2010-11-29 08:11:04 51°15.225 2°54.235 7.3269 3.352149 32.603933 -0.338911
2010-11-29 08:11:09 51°15.24 2°54.218 7.3215 3.352149 32.603933 -0.338911
2010-11-29 08:11:14 51°15.254 2°54.2 7.3171 3.348565 32.566065 -0.304087
2010-11-29 08:11:19 51°15.269 2°54.183 7.2822 3.348144 32.560722 -0.269263
2010-11-29 08:11:24 51°15.283 2°54.165 7.248 3.349198 32.569709 -0.304087
2010-11-29 08:11:29 51°15.298 2°54.147 7.2183 3.351622 32.598247 -0.269263
2010-11-29 08:11:34 51°15.313 2°54.13 7.2019 3.354152 32.626337 -0.304087
2010-11-29 08:11:39 51°15.328 2°54.113 7.1865 3.354152 32.626337 -0.304087
2010-11-29 08:11:44 51°15.343 2°54.097 7.1739 3.364271 32.738744 -0.304087
2010-11-29 08:11:49 51°15.357 2°54.08 7.1635 3.363322 32.730897 -0.304087
2010-11-29 08:11:54 51°15.372 2°54.062 7.1557 3.361952 32.721692 -0.269263
2010-11-29 08:12:00 51°15.389 2°54.042 7.1544 3.358368 32.694965 -0.304087
2010-11-29 08:12:04 51°15.401 2°54.029 7.1564 3.35489 32.679739 -0.269263
2010-11-29 08:12:09 51°15.415 2°54.011 7.1717 3.35489 32.679739 -0.269263
2010-11-29 08:12:14 51°15.431 2°53.994 7.1807 3.34572 32.602969 -0.269263
2010-11-29 08:12:19 51°15.444 2°53.977 7.1826 3.341293 32.58141 -0.269263
2010-11-29 08:12:24 51°15.46 2°53.96 7.1661 3.325378 32.429969 -0.269263
2010-11-29 08:12:29 51°15.474 2°53.943 7.1906 3.330437 32.49742 -0.304087
2010-11-29 08:12:34 51°15.489 2°53.925 7.203 3.32717 32.473201 -0.304087
2010-11-29 08:12:40 51°15.507 2°53.906 7.2125 3.32717 32.473201 -0.304087
2010-11-29 08:12:44 51°15.519 2°53.892 7.2156 3.31916 32.397632 -0.304087
2010-11-29 08:12:49 51°15.534 2°53.875 7.2138 3.318844 32.396592 -0.304087
2010-11-29 08:12:54 51°15.549 2°53.857 7.2097 3.317368 32.37824 -0.234439
2010-11-29 08:12:59 51°15.564 2°53.841 7.2041 3.310939 32.305503 -0.269263
2010-11-29 08:13:04 51°15.579 2°53.824 7.2029 3.310728 32.302431 -0.199615
2010-11-29 08:13:09 51°15.594 2°53.807 7.1982 3.310728 32.302431 -0.199615
2010-11-29 08:13:14 51°15.609 2°53.79 7.1921 3.306933 32.255855 -0.234439
2010-11-29 08:13:19 51°15.624 2°53.773 7.1849 3.311676 32.300026 -0.234439
2010-11-29 08:13:24 51°15.639 2°53.756 7.181 3.309041 32.26205 -0.234439
2010-11-29 08:13:29 51°15.655 2°53.739 7.1748 3.31547 32.326014 -0.234439
2010-11-29 08:13:34 51°15.67 2°53.722 7.1726 3.310201 32.269841 -0.199615
2010-11-29 08:13:39 51°15.685 2°53.705 7.1711 3.310201 32.269841 -0.199615
2010-11-29 08:13:44 51°15.7 2°53.688 7.1758 3.313257 32.302879 -0.269263
2010-11-29 08:13:49 51°15.714 2°53.67 7.1764 3.308409 32.252845 -0.269263
2010-11-29 08:13:54 51°15.729 2°53.653 7.175 3.312098 32.2943 -0.234439
2010-11-29 08:13:59 51°15.744 2°53.636 7.1831 3.312625 32.304744 -0.269263
2010-11-29 08:14:04 51°15.759 2°53.619 7.2026 3.314733 32.333874 -0.234439
2010-11-29 08:14:09 51°15.774 2°53.602 7.2207 3.314733 32.333874 -0.234439
2010-11-29 08:14:14 51°15.79 2°53.586 7.2404 3.313152 32.320734 -0.304087
2010-11-29 08:14:19 51°15.805 2°53.568 7.254 3.302085 32.204222 -0.234439
2010-11-29 08:14:24 51°15.82 2°53.552 7.2608 3.303245 32.219125 -0.234439
2010-11-29 08:14:29 51°15.835 2°53.535 7.2674 3.304826 32.237801 -0.269263
2010-11-29 08:14:34 51°15.851 2°53.518 7.2725 3.308514 32.276907 -0.269263
2010-11-29 08:14:40 51°15.869 2°53.499 7.2742 3.308514 32.276907 -0.269263
2010-11-29 08:14:44 51°15.882 2°53.486 7.2739 3.317789 32.374866 -0.269263
2010-11-29 08:14:49 51°15.897 2°53.469 7.2783 3.320424 32.393852 -0.234439
2010-11-29 08:14:54 51°15.913 2°53.455 7.2803 3.327275 32.452871 -0.269263
2010-11-29 08:14:59 51°15.929 2°53.439 7.2862 3.316313 32.320094 -0.269263
2010-11-29 08:15:04 51°15.945 2°53.424 7.2902 3.330859 32.465403 -0.234439
2010-11-29 08:15:09 51°15.96 2°53.41 7.2921 3.330859 32.465403 -0.234439
2010-11-29 08:15:14 51°15.977 2°53.395 7.2911 3.329594 32.441414 -0.269263
2010-11-29 08:15:19 51°15.994 2°53.381 7.2977 3.333283 32.470954 -0.234439
2010-11-29 08:15:25 51°16.012 2°53.363 7.2983 3.329593 32.427139 -0.269263
2010-11-29 08:15:29 51°16.026 2°53.352 7.3017 3.337709 32.511631 -0.234439
2010-11-29 08:15:34 51°16.042 2°53.337 7.308 3.338342 32.512105 -0.234439
2010-11-29 08:15:39 51°16.058 2°53.323 7.3093 3.338342 32.512105 -0.234439
2010-11-29 08:15:44 51°16.075 2°53.309 7.3237 3.34045 32.530107 -0.234439
2010-11-29 08:15:49 51°16.091 2°53.294 7.3348 3.332966 32.445328 -0.269263
2010-11-29 08:15:54 51°16.108 2°53.281 7.3432 3.34182 32.537752 -0.234439
2010-11-29 08:15:59 51°16.124 2°53.267 7.3509 3.334231 32.452641 -0.234439
2010-11-29 08:16:04 51°16.141 2°53.253 7.3538 3.346458 32.580678 -0.269263
2010-11-29 08:16:09 51°16.157 2°53.24 7.3539 3.346458 32.580678 -0.269263
2010-11-29 08:16:14 51°16.174 2°53.227 7.3538 3.348039 32.595364 -0.269263
2010-11-29 08:16:19 51°16.191 2°53.213 7.3547 3.349725 32.610392 -0.269263
2010-11-29 08:16:24 51°16.206 2°53.199 7.3554 3.353098 32.637255 -0.269263
2010-11-29 08:16:29 51°16.223 2°53.186 7.3546 3.35373 32.635321 -0.269263
2010-11-29 08:16:34 51°16.239 2°53.172 7.3544 3.348881 32.572654 -0.304087
2010-11-29 08:16:40 51°16.259 2°53.156 7.3533 3.348881 32.572654 -0.304087
2010-11-29 08:16:44 51°16.272 2°53.145 7.3519 3.356998 32.656251 -0.304087
2010-11-29 08:16:49 51°16.288 2°53.131 7.351 3.358579 32.666143 -0.234439
2010-11-29 08:16:54 51°16.305 2°53.117 7.3488 3.357314 32.653292 -0.269263
2010-11-29 08:17:00 51°16.324 2°53.1 7.348 3.358051 32.657271 -0.234439
2010-11-29 08:17:04 51°16.337 2°53.089 7.3474 3.347616 32.544718 -0.234439
2010-11-29 08:17:09 51°16.353 2°53.075 7.3482 3.347616 32.544718 -0.234439
2010-11-29 08:17:14 51°16.369 2°53.061 7.3515 3.360054 32.677284 -0.269263
2010-11-29 08:17:19 51°16.385 2°53.047 7.3494 3.358578 32.661364 -0.269263
2010-11-29 08:17:25 51°16.403 2°53.03 7.351 3.359527 32.672395 -0.269263
2010-11-29 08:17:29 51°16.416 2°53.019 7.3531 3.354995 32.624295 -0.304087
2010-11-29 08:17:34 51°16.433 2°53.006 7.3558 3.360897 32.687976 -0.269263
2010-11-29 08:17:39 51°16.449 2°52.992 7.3518 3.360897 32.687976 -0.269263
2010-11-29 08:17:44 51°16.466 2°52.978 7.3482 3.360792 32.688433 -0.269263
2010-11-29 08:17:49 51°16.482 2°52.964 7.3458 3.359527 32.674785 -0.304087
2010-11-29 08:17:54 51°16.499 2°52.95 7.3477 3.34846 32.555399 -0.234439
2010-11-29 08:17:59 51°16.514 2°52.936 7.3473 3.359527 32.673192 -0.269263
2010-11-29 08:18:04 51°16.53 2°52.923 7.3455 3.347722 32.546648 -0.269263
2010-11-29 08:18:09 51°16.547 2°52.909 7.3453 3.347722 32.546648 -0.269263
2010-11-29 08:18:14 51°16.563 2°52.895 7.3506 3.355522 32.629184 -0.269263
2010-11-29 08:18:19 51°16.579 2°52.881 7.3523 3.35763 32.651926 -0.269263
2010-11-29 08:18:24 51°16.595 2°52.867 7.3478 3.35763 32.653518 -0.269263
2010-11-29 08:18:29 51°16.611 2°52.853 7.3509 3.358895 32.665572 -0.269263
2010-11-29 08:18:34 51°16.627 2°52.839 7.3482 3.355311 32.628502 -0.304087
2010-11-29 08:18:39 51°16.644 2°52.826 7.3463 3.355311 32.628502 -0.304087
2010-11-29 08:18:44 51°16.66 2°52.811 7.3478 3.359 32.668302 -0.304087
2010-11-29 08:18:49 51°16.677 2°52.798 7.3491 3.350989 32.584271 -0.304087
2010-11-29 08:18:54 51°16.693 2°52.783 7.3493 3.359843 32.678197 -0.269263
2010-11-29 08:19:00 51°16.712 2°52.766 7.3545 3.358051 32.658067 -0.269263
2010-11-29 08:19:04 51°16.725 2°52.755 7.3511 3.355733 32.63305 -0.304087
2010-11-29 08:19:09 51°16.742 2°52.741 7.3577 3.355733 32.63305 -0.304087
2010-11-29 08:19:14 51°16.759 2°52.728 7.3569 3.359211 32.66978 -0.304087
2010-11-29 08:19:19 51°16.775 2°52.714 7.3597 3.35763 32.654314 -0.304087
2010-11-29 08:19:25 51°16.795 2°52.697 7.3617 3.355627 32.632708 -0.304087
2010-11-29 08:19:29 51°16.809 2°52.686 7.3626 3.358262 32.659545 -0.304087
2010-11-29 08:19:34 51°16.826 2°52.672 7.3685 3.355943 32.634528 -0.304087
2010-11-29 08:19:39 51°16.842 2°52.658 7.3682 3.355943 32.634528 -0.304087
2010-11-29 08:19:44 51°16.859 2°52.644 7.3699 3.359422 32.672851 -0.304087
2010-11-29 08:19:49 51°16.875 2°52.629 7.3708 3.361214 32.688997 -0.304087
2010-11-29 08:19:54 51°16.892 2°52.616 7.3708 3.362162 32.697638 -0.304087
2010-11-29 08:19:59 51°16.908 2°52.601 7.373 3.364797 32.724476 -0.304087
2010-11-29 08:20:04 51°16.924 2°52.587 7.3768 3.365535 32.729246 -0.304087
2010-11-29 08:20:09 51°16.941 2°52.573 7.3793 3.365535 32.729246 -0.304087
2010-11-29 08:20:14 51°16.958 2°52.56 7.3825 3.368487 32.758696 -0.304087
2010-11-29 08:20:19 51°16.974 2°52.546 7.3882 3.36817 32.752889 -0.304087
2010-11-29 08:20:24 51°16.991 2°52.532 7.3886 3.368487 32.753107 -0.304087
2010-11-29 08:20:29 51°17.007 2°52.519 7.3895 3.371333 32.783013 -0.338911
2010-11-29 08:20:34 51°17.023 2°52.505 7.3919 3.374179 32.812123 -0.304087
2010-11-29 08:20:39 51°17.04 2°52.491 7.3926 3.374179 32.812123 -0.304087
2010-11-29 08:20:44 51°17.056 2°52.476 7.3927 3.371649 32.783229 -0.304087
2010-11-29 08:20:49 51°17.073 2°52.462 7.3947 3.375022 32.817223 -0.304087
2010-11-29 08:20:54 51°17.089 2°52.448 7.3991 3.378606 32.852692 -0.304087
2010-11-29 08:20:59 51°17.105 2°52.434 7.4013 3.374916 32.80969 -0.304087
2010-11-29 08:21:04 51°17.121 2°52.42 7.4037 3.374705 32.805818 -0.338911
2010-11-29 08:21:09 51°17.138 2°52.405 7.4081 3.374705 32.805818 -0.338911
2010-11-29 08:21:14 51°17.154 2°52.392 7.4141 3.372808 32.78136 -0.304087
2010-11-29 08:21:20 51°17.174 2°52.375 7.4224 3.385141 32.912794 -0.304087
2010-11-29 08:21:24 51°17.187 2°52.364 7.429 3.382084 32.877411 -0.338911
2010-11-29 08:21:29 51°17.204 2°52.35 7.4329 3.376813 32.818965 -0.338911
2010-11-29 08:21:34 51°17.22 2°52.336 7.4397 3.389041 32.949263 -0.304087
2010-11-29 08:21:40 51°17.239 2°52.319 7.4463 3.389041 32.949263 -0.304087
2010-11-29 08:21:44 51°17.253 2°52.308 7.4514 3.380187 32.849745 -0.304087
2010-11-29 08:21:49 51°17.27 2°52.294 7.4567 3.39273 32.981042 -0.338911
2010-11-29 08:21:54 51°17.286 2°52.28 7.464 3.391887 32.968733 -0.304087
2010-11-29 08:21:59 51°17.303 2°52.266 7.4704 3.394838 32.994953 -0.338911
2010-11-29 08:22:05 51°17.322 2°52.249 7.4748 3.397684 33.018423 -0.304087
2010-11-29 08:22:09 51°17.335 2°52.237 7.4815 3.397684 33.018423 -0.304087
2010-11-29 08:22:14 51°17.352 2°52.221 7.4878 3.402744 33.067373 -0.338911
2010-11-29 08:22:19 51°17.368 2°52.206 7.4958 3.404852 33.084481 -0.304087
2010-11-29 08:22:24 51°17.384 2°52.19 7.5002 3.401901 33.046217 -0.304087
2010-11-29 08:22:29 51°17.4 2°52.174 7.5074 3.396525 32.980238 -0.338911
2010-11-29 08:22:34 51°17.416 2°52.158 7.5125 3.404431 33.059026 -0.338911
2010-11-29 08:22:39 51°17.431 2°52.142 7.5205 3.404431 33.059026 -0.338911
2010-11-29 08:22:44 51°17.447 2°52.126 7.5263 3.411915 33.133269 -0.304087
2010-11-29 08:22:49 51°17.462 2°52.109 7.5323 3.408963 33.095821 -0.338911
2010-11-29 08:22:54 51°17.478 2°52.093 7.5421 3.407909 33.076424 -0.304087
2010-11-29 08:22:59 51°17.493 2°52.076 7.5471 3.418239 33.182915 -0.338911
2010-11-29 08:23:04 51°17.508 2°52.06 7.5491 3.419294 33.18541 -0.338911
2010-11-29 08:23:09 51°17.523 2°52.043 7.5562 3.419294 33.18541 -0.338911
2010-11-29 08:23:14 51°17.539 2°52.027 7.5647 3.423194 33.220987 -0.304087
2010-11-29 08:23:19 51°17.555 2°52.01 7.5754 3.422561 33.207723 -0.338911
2010-11-29 08:23:24 51°17.57 2°51.994 7.5781 3.427621 33.254973 -0.304087
2010-11-29 08:23:29 51°17.586 2°51.978 7.5876 3.42604 33.22907 -0.338911
2010-11-29 08:23:34 51°17.602 2°51.961 7.5946 3.432892 33.296409 -0.304087
2010-11-29 08:23:40 51°17.62 2°51.942 7.5966 3.432892 33.296409 -0.304087
2010-11-29 08:23:44 51°17.632 2°51.929 7.6062 3.431311 33.272116 -0.304087
2010-11-29 08:23:49 51°17.648 2°51.914 7.613 3.426778 33.216066 -0.304087
2010-11-29 08:23:54 51°17.664 2°51.898 7.6194 3.431627 33.258585 -0.304087
2010-11-29 08:24:00 51°17.682 2°51.879 7.6274 3.437741 33.317933 -0.338911
2010-11-29 08:24:05 51°17.698 2°51.864 7.632 3.440271 33.337894 -0.269263
2010-11-29 08:24:09 51°17.711 2°51.851 7.6436 3.440271 33.337894 -0.269263
2010-11-29 08:24:14 51°17.727 2°51.836 7.6475 3.436686 33.293681 -0.304087
2010-11-29 08:24:19 51°17.743 2°51.819 7.6544 3.445014 33.372781 -0.338911
2010-11-29 08:24:24 51°17.759 2°51.804 7.6604 3.445541 33.37118 -0.269263
2010-11-29 08:24:29 51°17.775 2°51.788 7.6663 3.443433 33.340432 -0.269263
2010-11-29 08:24:34 51°17.791 2°51.773 7.6742 3.441852 33.31698 -0.269263
2010-11-29 08:24:39 51°17.807 2°51.757 7.6808 3.441852 33.31698 -0.269263
2010-11-29 08:24:44 51°17.823 2°51.742 7.6872 3.447755 33.372374 -0.338911
2010-11-29 08:24:49 51°17.839 2°51.726 7.6901 3.448387 33.370295 -0.304087
2010-11-29 08:24:54 51°17.855 2°51.71 7.6945 3.448282 33.361095 -0.304087
2010-11-29 08:24:59 51°17.871 2°51.694 7.7066 3.452288 33.398489 -0.304087
2010-11-29 08:25:04 51°17.887 2°51.678 7.7139 3.452288 33.390419 -0.304087
2010-11-29 08:25:09 51°17.903 2°51.661 7.7268 3.452288 33.390419 -0.304087
2010-11-29 08:25:14 51°17.919 2°51.645 7.7337 3.45408 33.403213 -0.269263
2010-11-29 08:25:19 51°17.934 2°51.629 7.7404 3.456083 33.416655 -0.269263
2010-11-29 08:25:24 51°17.95 2°51.613 7.753 3.452815 33.373501 -0.234439
2010-11-29 08:25:29 51°17.967 2°51.596 7.7677 3.461037 33.454519 -0.269263
2010-11-29 08:25:34 51°17.983 2°51.579 7.7733 3.463251 33.47425 -0.269263
2010-11-29 08:25:39 51°17.998 2°51.563 7.772 3.463251 33.47425 -0.269263
2010-11-29 08:25:44 51°18.013 2°51.547 7.7902 3.462091 33.450495 -0.269263
2010-11-29 08:25:49 51°18.028 2°51.53 7.7966 3.456188 33.379091 -0.234439
2010-11-29 08:25:54 51°18.044 2°51.513 7.8021 3.467468 33.489619 -0.269263
2010-11-29 08:25:59 51°18.059 2°51.498 7.8092 3.468838 33.497053 -0.234439
2010-11-29 08:26:04 51°18.075 2°51.481 7.8195 3.473793 33.53889 -0.269263
2010-11-29 08:26:09 51°18.09 2°51.466 7.8312 3.473793 33.53889 -0.269263
2010-11-29 08:26:14 51°18.106 2°51.449 7.8423 3.47548 33.544856 -0.269263
2010-11-29 08:26:20 51°18.125 2°51.431 7.8486 3.475585 33.534676 -0.269263
2010-11-29 08:26:24 51°18.138 2°51.418 7.8543 3.479169 33.565018 -0.304087
2010-11-29 08:26:29 51°18.154 2°51.403 7.865 3.472844 33.487555 -0.199615
2010-11-29 08:26:34 51°18.169 2°51.386 7.8697 3.482015 33.578552 -0.234439
2010-11-29 08:26:39 51°18.185 2°51.37 7.8736 3.482015 33.578552 -0.234439
2010-11-29 08:26:44 51°18.2 2°51.354 7.8738 3.474847 33.493696 -0.234439
2010-11-29 08:26:49 51°18.215 2°51.336 7.886 3.48929 33.636268 -0.269263
2010-11-29 08:26:54 51°18.23 2°51.321 7.8912 3.489184 33.624627 -0.234439
2010-11-29 08:26:59 51°18.246 2°51.304 7.894 3.489606 33.618636 -0.269263
2010-11-29 08:27:05 51°18.265 2°51.285 7.9005 3.490238 33.616521 -0.269263
2010-11-29 08:27:09 51°18.277 2°51.272 7.9009 3.490238 33.616521 -0.269263
2010-11-29 08:27:14 51°18.294 2°51.256 7.9063 3.490765 33.614087 -0.234439
2010-11-29 08:27:19 51°18.309 2°51.239 7.9091 3.485705 33.551084 -0.269263
2010-11-29 08:27:24 51°18.325 2°51.224 7.9133 3.495825 33.652881 -0.269263
2010-11-29 08:27:29 51°18.341 2°51.207 7.9071 3.492452 33.611147 -0.269263
2010-11-29 08:27:34 51°18.357 2°51.191 7.9098 3.494139 33.621923 -0.234439
2010-11-29 08:27:39 51°18.373 2°51.175 7.9247 3.494139 33.621923 -0.234439
2010-11-29 08:27:44 51°18.388 2°51.159 7.9216 3.501729 33.695822 -0.234439
2010-11-29 08:27:49 51°18.403 2°51.142 7.9216 3.50194 33.694035 -0.269263
2010-11-29 08:27:54 51°18.418 2°51.126 7.92 3.499726 33.666326 -0.234439
2010-11-29 08:27:59 51°18.434 2°51.11 7.9254 3.503838 33.704625 -0.269263
2010-11-29 08:28:04 51°18.45 2°51.093 7.9313 3.500042 33.660826 -0.234439
2010-11-29 08:28:09 51°18.466 2°51.078 7.9278 3.500042 33.660826 -0.234439
2010-11-29 08:28:14 51°18.481 2°51.061 7.928 3.505419 33.715063 -0.234439
2010-11-29 08:28:20 51°18.499 2°51.041 7.9281 3.498988 33.643105 -0.234439
2010-11-29 08:28:24 51°18.512 2°51.029 7.9313 3.503416 33.684769 -0.234439
2010-11-29 08:28:29 51°18.527 2°51.012 7.9352 3.507211 33.722902 -0.269263
2010-11-29 08:28:34 51°18.543 2°50.996 7.9286 3.498039 33.624101 -0.234439
2010-11-29 08:28:40 51°18.562 2°50.977 7.9319 3.498039 33.624101 -0.234439
2010-11-29 08:28:44 51°18.575 2°50.964 7.9318 3.500675 33.648223 -0.199615
2010-11-29 08:28:49 51°18.591 2°50.948 7.9334 3.509847 33.74379 -0.234439
2010-11-29 08:28:54 51°18.606 2°50.931 7.9349 3.510796 33.753929 -0.234439
2010-11-29 08:28:59 51°18.622 2°50.915 7.9302 3.507211 33.714821 -0.269263
2010-11-29 08:29:05 51°18.64 2°50.895 7.9339 3.511006 33.752138 -0.234439
2010-11-29 08:29:09 51°18.653 2°50.882 7.9319 3.511006 33.752138 -0.234439
2010-11-29 08:29:14 51°18.668 2°50.865 7.9295 3.50953 33.73556 -0.199615
2010-11-29 08:29:19 51°18.683 2°50.848 7.9304 3.513537 33.777556 -0.234439
2010-11-29 08:29:24 51°18.699 2°50.833 7.9329 3.508054 33.718984 -0.234439
2010-11-29 08:29:29 51°18.715 2°50.816 7.935 3.513853 33.778507 -0.234439
2010-11-29 08:29:34 51°18.731 2°50.8 7.9333 3.504364 33.67715 -0.234439
2010-11-29 08:29:39 51°18.747 2°50.783 7.9315 3.504364 33.67715 -0.234439
2010-11-29 08:29:44 51°18.762 2°50.767 7.9286 3.508371 33.720747 -0.234439
2010-11-29 08:29:49 51°18.778 2°50.75 7.928 3.508792 33.725252 -0.199615
2010-11-29 08:29:54 51°18.794 2°50.735 7.9317 3.51554 33.796531 -0.234439
2010-11-29 08:29:59 51°18.81 2°50.718 7.9294 3.513853 33.778507 -0.234439
2010-11-29 08:30:04 51°18.825 2°50.702 7.9333 3.504364 33.676343 -0.234439
2010-11-29 08:30:09 51°18.841 2°50.686 7.9258 3.504364 33.676343 -0.234439
2010-11-29 08:30:14 51°18.856 2°50.669 7.9234 3.517438 33.81519 -0.234439
2010-11-29 08:30:20 51°18.874 2°50.65 7.9213 3.514591 33.784774 -0.234439
2010-11-29 08:30:24 51°18.886 2°50.636 7.9047 3.513537 33.774319 -0.269263
2010-11-29 08:30:29 51°18.902 2°50.621 7.8733 3.513115 33.771431 -0.234439
2010-11-29 08:30:34 51°18.917 2°50.605 7.846 3.514169 33.781078 -0.234439
2010-11-29 08:30:40 51°18.935 2°50.585 7.8172 3.514169 33.781078 -0.234439
2010-11-29 08:30:44 51°18.948 2°50.572 7.7939 3.516489 33.80748 -0.234439
2010-11-29 08:30:49 51°18.963 2°50.555 7.7672 3.50953 33.732328 -0.234439
2010-11-29 08:30:54 51°18.978 2°50.539 7.7418 3.509425 33.733626 -0.234439
2010-11-29 08:30:59 51°18.994 2°50.522 7.7303 3.51438 33.790616 -0.199615
2010-11-29 08:31:05 51°19.012 2°50.503 7.7137 3.510163 33.755258 -0.234439
2010-11-29 08:31:09 51°19.025 2°50.49 7.7104 3.510163 33.755258 -0.234439
2010-11-29 08:31:14 51°19.04 2°50.474 7.6875 3.509004 33.759047 -0.199615
2010-11-29 08:31:19 51°19.055 2°50.457 7.6789 3.505841 33.748702 -0.234439
2010-11-29 08:31:24 51°19.071 2°50.441 7.6686 3.501203 33.731461 -0.234439
2010-11-29 08:31:29 51°19.086 2°50.424 7.6625 3.492347 33.664971 -0.234439
2010-11-29 08:31:34 51°19.101 2°50.408 7.6541 3.49066 33.667142 -0.234439
2010-11-29 08:31:39 51°19.116 2°50.392 7.6466 3.49066 33.667142 -0.234439
2010-11-29 08:31:44 51°19.131 2°50.375 7.6395 3.486022 33.640908 -0.234439
2010-11-29 08:31:49 51°19.147 2°50.359 7.6411 3.476639 33.5581 -0.304087
2010-11-29 08:31:54 51°19.163 2°50.342 7.6289 3.480118 33.612417 -0.304087
2010-11-29 08:31:59 51°19.178 2°50.326 7.6229 3.477272 33.597263 -0.269263
2010-11-29 08:32:04 51°19.194 2°50.309 7.6204 3.47411 33.574652 -0.269263
2010-11-29 08:32:09 51°19.209 2°50.292 7.6216 3.47411 33.574652 -0.269263
2010-11-29 08:32:14 51°19.224 2°50.276 7.6158 3.466941 33.509824 -0.269263
2010-11-29 08:32:19 51°19.239 2°50.258 7.6102 3.4642 33.489287 -0.234439
2010-11-29 08:32:24 51°19.255 2°50.242 7.6072 3.462724 33.483948 -0.269263
2010-11-29 08:32:29 51°19.27 2°50.225 7.606 3.458929 33.452073 -0.269263
2010-11-29 08:32:34 51°19.286 2°50.209 7.6007 3.45798 33.449154 -0.269263
2010-11-29 08:32:40 51°19.305 2°50.189 7.6003 3.45798 33.449154 -0.269263
2010-11-29 08:32:44 51°19.317 2°50.176 7.6005 3.453447 33.405297 -0.269263
2010-11-29 08:32:49 51°19.333 2°50.159 7.598 3.452077 33.397031 -0.234439
2010-11-29 08:32:54 51°19.349 2°50.143 7.5956 3.448809 33.365952 -0.269263
2010-11-29 08:32:59 51°19.365 2°50.126 7.5965 3.447649 33.358331 -0.269263
2010-11-29 08:33:05 51°19.383 2°50.106 7.5975 3.43521 33.229519 -0.234439
2010-11-29 08:33:09 51°19.396 2°50.093 7.6041 3.43521 33.229519 -0.234439
2010-11-29 08:33:14 51°19.41 2°50.076 7.6067 3.443644 33.325763 -0.234439
2010-11-29 08:33:20 51°19.427 2°50.054 7.6127 3.436053 33.245813 -0.234439
2010-11-29 08:33:25 51°19.44 2°50.037 7.6198 3.436264 33.248883 -0.234439
2010-11-29 08:33:31 51°19.459 2°50.019 7.6236 3.43131 33.200473 -0.234439
2010-11-29 08:33:36 51°19.473 2°50.002 7.6295 3.435316 33.245122 -0.269263
2010-11-29 08:33:41 51°19.488 2°49.986 7.6349 3.435316 33.245122 -0.269263
2010-11-29 08:33:45 51°19.501 2°49.972 7.6364 3.431415 33.204015 -0.234439
2010-11-29 08:33:50 51°19.515 2°49.955 7.6396 3.427409 33.159375 -0.234439
2010-11-29 08:33:55 51°19.531 2°49.939 7.6423 3.430361 33.191886 -0.234439
2010-11-29 08:34:00 51°19.547 2°49.922 7.6454 3.430361 33.183858 -0.234439
2010-11-29 08:34:05 51°19.562 2°49.905 7.6494 3.430045 33.177252 -0.199615
2010-11-29 08:34:09 51°19.575 2°49.892 7.6533 3.430045 33.177252 -0.199615
2010-11-29 08:34:14 51°19.59 2°49.874 7.6592 3.431099 33.182956 -0.164791
2010-11-29 08:34:19 51°19.605 2°49.858 7.6638 3.426777 33.131742 -0.199615
2010-11-29 08:34:24 51°19.62 2°49.84 7.6695 3.431099 33.172529 -0.199615
2010-11-29 08:34:29 51°19.635 2°49.823 7.6768 3.430677 33.1664 -0.199615
2010-11-29 08:34:34 51°19.65 2°49.806 7.6852 3.419292 33.041827 -0.199615
2010-11-29 08:34:40 51°19.668 2°49.786 7.6955 3.419292 33.041827 -0.199615
2010-11-29 08:34:44 51°19.681 2°49.772 7.7102 3.427093 33.119925 -0.199615
2010-11-29 08:34:49 51°19.696 2°49.755 7.7205 3.430677 33.155181 -0.199615
2010-11-29 08:34:54 51°19.711 2°49.737 7.7345 3.431415 33.157492 -0.199615
2010-11-29 08:34:59 51°19.726 2°49.721 7.7395 3.429833 33.134124 -0.164791
2010-11-29 08:35:05 51°19.743 2°49.7 7.7473 3.423192 33.059707 -0.234439
2010-11-29 08:35:09 51°19.755 2°49.687 7.7494 3.423192 33.059707 -0.234439
2010-11-29 08:35:14 51°19.77 2°49.671 7.7489 3.427092 33.09274 -0.234439
2010-11-29 08:35:19 51°19.785 2°49.654 7.7464 3.433206 33.150296 -0.199615
2010-11-29 08:35:24 51°19.8 2°49.638 7.7461 3.432574 33.133919 -0.164791
2010-11-29 08:35:29 51°19.815 2°49.621 7.7464 3.431519 33.10984 -0.199615
2010-11-29 08:35:34 51°19.83 2°49.605 7.7471 3.434155 33.12769 -0.199615
2010-11-29 08:35:39 51°19.845 2°49.587 7.7487 3.434155 33.12769 -0.199615
2010-11-29 08:35:45 51°19.863 2°49.568 7.7486 3.440058 33.18133 -0.199615
2010-11-29 08:35:49 51°19.875 2°49.553 7.7493 3.442693 33.200758 -0.234439
2010-11-29 08:35:54 51°19.891 2°49.538 7.7512 3.432889 33.091006 -0.234439
2010-11-29 08:35:59 51°19.906 2°49.522 7.756 3.437001 33.13182 -0.269263
2010-11-29 08:36:04 51°19.923 2°49.507 7.7575 3.430043 33.056564 -0.234439
2010-11-29 08:36:09 51°19.939 2°49.495 7.7609 3.430043 33.056564 -0.234439
2010-11-29 08:36:14 51°19.955 2°49.481 7.7623 3.43679 33.12717 -0.304087
2010-11-29 08:36:19 51°19.973 2°49.47 7.7672 3.426881 33.020341 -0.304087
2010-11-29 08:36:24 51°19.99 2°49.458 7.7707 3.432889 33.083037 -0.304087
2010-11-29 08:36:29 51°20.007 2°49.447 7.7719 3.429411 33.045816 -0.269263
2010-11-29 08:36:34 51°20.024 2°49.437 7.7784 3.422769 32.970806 -0.304087
2010-11-29 08:36:39 51°20.041 2°49.425 7.778 3.422769 32.970806 -0.304087
2010-11-29 08:36:44 51°20.059 2°49.416 7.7817 3.421715 32.957946 -0.269263
2010-11-29 08:36:49 51°20.076 2°49.405 7.7823 3.42804 33.024793 -0.234439
2010-11-29 08:36:54 51°20.093 2°49.396 7.7862 3.417393 32.90619 -0.304087
2010-11-29 08:36:59 51°20.11 2°49.386 7.7887 3.425826 32.993967 -0.304087
2010-11-29 08:37:04 51°20.128 2°49.375 7.7883 3.425615 32.988536 -0.304087
2010-11-29 08:37:09 51°20.146 2°49.367 7.7911 3.425615 32.988536 -0.304087
2010-11-29 08:37:14 51°20.163 2°49.357 7.7933 3.423823 32.964617 -0.269263
2010-11-29 08:37:20 51°20.185 2°49.346 7.8048 3.423085 32.955144 -0.304087
2010-11-29 08:37:24 51°20.199 2°49.337 7.8085 3.417287 32.89002 -0.269263
2010-11-29 08:37:29 51°20.216 2°49.328 7.8232 3.42435 32.963112 -0.304087
2010-11-29 08:37:34 51°20.234 2°49.317 7.8327 3.423507 32.950136 -0.304087
2010-11-29 08:37:39 51°20.252 2°49.307 7.8447 3.423507 32.950136 -0.304087
2010-11-29 08:37:45 51°20.272 2°49.296 7.8443 3.423085 32.944046 -0.304087
2010-11-29 08:37:49 51°20.286 2°49.287 7.8589 3.422558 32.93683 -0.269263
2010-11-29 08:37:54 51°20.303 2°49.277 7.8777 3.414968 32.851017 -0.304087
2010-11-29 08:37:59 51°20.321 2°49.268 7.8925 3.42435 32.947259 -0.269263
2010-11-29 08:38:04 51°20.338 2°49.258 7.9072 3.427302 32.971654 -0.269263
2010-11-29 08:38:09 51°20.356 2°49.25 7.9121 3.427302 32.971654 -0.269263
2010-11-29 08:38:14 51°20.375 2°49.245 7.9265 3.417603 32.861774 -0.269263
2010-11-29 08:38:19 51°20.393 2°49.239 7.9255 3.419395 32.869843 -0.269263
2010-11-29 08:38:24 51°20.411 2°49.236 7.9289 3.428356 32.956768 -0.269263
2010-11-29 08:38:29 51°20.429 2°49.231 7.9272 3.431307 32.978766 -0.269263
2010-11-29 08:38:34 51°20.447 2°49.229 7.9262 3.426563 32.912346 -0.269263
2010-11-29 08:38:39 51°20.466 2°49.229 7.9278 3.426563 32.912346 -0.269263
2010-11-29 08:38:44 51°20.484 2°49.233 7.9355 3.434048 32.976342 -0.234439
2010-11-29 08:38:49 51°20.502 2°49.237 7.9441 3.428777 32.908313 -0.269263
2010-11-29 08:38:54 51°20.521 2°49.241 7.952 3.436577 32.979587 -0.269263
2010-11-29 08:38:59 51°20.539 2°49.248 7.9572 3.434258 32.943822 -0.269263
2010-11-29 08:39:04 51°20.558 2°49.254 7.9646 3.441532 33.015768 -0.269263
2010-11-29 08:39:09 51°20.576 2°49.261 7.9702 3.441532 33.015768 -0.269263
2010-11-29 08:39:14 51°20.594 2°49.268 7.9769 3.441848 33.015182 -0.234439
2010-11-29 08:39:19 51°20.612 2°49.277 7.9808 3.431833 32.908539 -0.269263
2010-11-29 08:39:24 51°20.63 2°49.286 7.9811 3.433731 32.92401 -0.269263
2010-11-29 08:39:29 51°20.648 2°49.295 7.9766 3.432887 32.910304 -0.304087
2010-11-29 08:39:34 51°20.666 2°49.304 7.9769 3.439634 32.97344 -0.234439
2010-11-29 08:39:40 51°20.688 2°49.314 7.9824 3.439634 32.97344 -0.234439
2010-11-29 08:39:44 51°20.702 2°49.322 7.98 3.442269 32.994385 -0.269263
2010-11-29 08:39:49 51°20.72 2°49.332 7.9717 3.437315 32.935353 -0.269263
2010-11-29 08:39:54 51°20.737 2°49.341 7.9636 3.437736 32.933536 -0.234439
2010-11-29 08:39:59 51°20.755 2°49.351 7.9538 3.43858 32.936203 -0.234439
2010-11-29 08:40:04 51°20.773 2°49.361 7.9438 3.442585 32.975655 -0.234439
2010-11-29 08:40:09 51°20.791 2°49.37 7.9317 3.442585 32.975655 -0.234439
2010-11-29 08:40:14 51°20.808 2°49.38 7.9218 3.44617 33.011412 -0.304087
2010-11-29 08:40:19 51°20.826 2°49.39 7.9159 3.435733 32.900427 -0.234439
2010-11-29 08:40:24 51°20.844 2°49.399 7.9085 3.445221 32.999742 -0.234439
2010-11-29 08:40:29 51°20.861 2°49.409 7.9015 3.438685 32.931811 -0.269263
2010-11-29 08:40:34 51°20.878 2°49.419 7.895 3.443007 32.983295 -0.269263
2010-11-29 08:40:39 51°20.897 2°49.429 7.8909 3.443007 32.983295 -0.269263
2010-11-29 08:40:44 51°20.914 2°49.439 7.8864 3.44364 32.997916 -0.269263
2010-11-29 08:40:49 51°20.932 2°49.448 7.8783 3.439528 32.963638 -0.234439
2010-11-29 08:40:54 51°20.95 2°49.458 7.8743 3.439739 32.973773 -0.269263
2010-11-29 08:40:59 51°20.968 2°49.468 7.8689 3.439107 32.974934 -0.269263
2010-11-29 08:41:04 51°20.985 2°49.478 7.8627 3.437104 32.963871 -0.304087
2010-11-29 08:41:09 51°21.002 2°49.487 7.8578 3.437104 32.963871 -0.304087
2010-11-29 08:41:14 51°21.02 2°49.496 7.856 3.429198 32.889149 -0.304087
2010-11-29 08:41:19 51°21.038 2°49.506 7.8514 3.426773 32.869634 -0.269263
2010-11-29 08:41:24 51°21.055 2°49.516 7.8456 3.426352 32.870658 -0.269263
2010-11-29 08:41:29 51°21.072 2°49.525 7.8404 3.431939 32.935695 -0.304087
2010-11-29 08:41:34 51°21.091 2°49.535 7.837 3.430463 32.926285 -0.269263
2010-11-29 08:41:40 51°21.113 2°49.547 7.8296 3.430463 32.926285 -0.269263
2010-11-29 08:41:44 51°21.127 2°49.554 7.8261 3.430463 32.931023 -0.234439
2010-11-29 08:41:49 51°21.145 2°49.564 7.8237 3.430042 32.933637 -0.234439
2010-11-29 08:41:54 51°21.162 2°49.575 7.8199 3.425931 32.89455 -0.269263
2010-11-29 08:41:59 51°21.18 2°49.585 7.8146 3.429515 32.93829 -0.269263
2010-11-29 08:42:05 51°21.201 2°49.596 7.8099 3.428355 32.930666 -0.269263
2010-11-29 08:42:09 51°21.216 2°49.604 7.8029 3.428355 32.930666 -0.269263
2010-11-29 08:42:14 51°21.234 2°49.614 7.7981 3.421819 32.864923 -0.269263
2010-11-29 08:42:19 51°21.252 2°49.624 7.7942 3.425193 32.907211 -0.269263
2010-11-29 08:42:24 51°21.27 2°49.632 7.7881 3.417076 32.825381 -0.234439
2010-11-29 08:42:29 51°21.288 2°49.64 7.7881 3.42572 32.923108 -0.304087
2010-11-29 08:42:34 51°21.307 2°49.648 7.7863 3.422768 32.896358 -0.269263
2010-11-29 08:42:39 51°21.325 2°49.655 7.7853 3.422768 32.896358 -0.269263
2010-11-29 08:42:44 51°21.343 2°49.66 7.7836 3.424455 32.92068 -0.269263
2010-11-29 08:42:49 51°21.362 2°49.666 7.7835 3.423612 32.915633 -0.304087
2010-11-29 08:42:54 51°21.38 2°49.671 7.7813 3.418236 32.863786 -0.269263
2010-11-29 08:42:59 51°21.399 2°49.677 7.7783 3.421293 32.90274 -0.269263
2010-11-29 08:43:04 51°21.418 2°49.68 7.776 3.423085 32.927413 -0.304087
2010-11-29 08:43:09 51°21.437 2°49.684 7.7734 3.423085 32.927413 -0.304087
2010-11-29 08:43:14 51°21.456 2°49.686 7.7732 3.422558 32.92416 -0.269263
2010-11-29 08:43:19 51°21.475 2°49.69 7.7701 3.414546 32.842566 -0.269263
2010-11-29 08:43:24 51°21.494 2°49.691 7.7702 3.423718 32.943672 -0.269263
2010-11-29 08:43:29 51°21.513 2°49.694 7.7686 3.42182 32.923404 -0.304087
2010-11-29 08:43:34 51°21.532 2°49.693 7.7689 3.421399 32.921275 -0.269263
2010-11-29 08:43:39 51°21.551 2°49.694 7.7695 3.421399 32.921275 -0.269263
2010-11-29 08:43:44 51°21.57 2°49.692 7.768 3.418552 32.892456 -0.269263
2010-11-29 08:43:49 51°21.589 2°49.693 7.7675 3.413071 32.837074 -0.269263
2010-11-29 08:43:54 51°21.608 2°49.69 7.7686 3.423085 32.945631 -0.269263
2010-11-29 08:43:59 51°21.627 2°49.689 7.7766 3.419923 32.913427 -0.269263
2010-11-29 08:44:04 51°21.645 2°49.686 7.7884 3.421926 32.936411 -0.269263
2010-11-29 08:44:09 51°21.665 2°49.683 7.8118 3.421926 32.936411 -0.269263
2010-11-29 08:44:14 51°21.684 2°49.679 7.8289 3.418025 32.896321 -0.269263
2010-11-29 08:44:20 51°21.706 2°49.674 7.8418 3.421715 32.936535 -0.269263
2010-11-29 08:44:24 51°21.721 2°49.669 7.8576 3.420344 32.922684 -0.304087
2010-11-29 08:44:29 51°21.74 2°49.664 7.8696 3.420134 32.922015 -0.304087
2010-11-29 08:44:34 51°21.759 2°49.657 7.8904 3.421399 32.931571 -0.304087
2010-11-29 08:44:39 51°21.776 2°49.647 7.8972 3.421399 32.931571 -0.304087
2010-11-29 08:44:44 51°21.794 2°49.639 7.9092 3.422558 32.940792 -0.304087
2010-11-29 08:44:49 51°21.812 2°49.628 7.9233 3.424034 32.946258 -0.234439
2010-11-29 08:44:54 51°21.83 2°49.617 7.9302 3.427196 32.96815 -0.234439
2010-11-29 08:44:59 51°21.846 2°49.603 7.94 3.430464 32.987194 -0.269263
2010-11-29 08:45:04 51°21.863 2°49.591 7.9479 3.434259 33.011058 -0.304087
2010-11-29 08:45:09 51°21.879 2°49.575 7.9601 3.434259 33.011058 -0.304087
2010-11-29 08:45:14 51°21.894 2°49.559 7.9623 3.436472 33.01962 -0.269263
2010-11-29 08:45:19 51°21.909 2°49.541 7.9646 3.439213 33.033007 -0.269263
2010-11-29 08:45:24 51°21.924 2°49.523 7.9742 3.437843 33.007307 -0.269263
2010-11-29 08:45:29 51°21.939 2°49.505 7.9743 3.443219 33.04957 -0.304087
2010-11-29 08:45:34 51°21.952 2°49.483 7.9718 3.43605 32.96212 -0.269263
2010-11-29 08:45:39 51°21.964 2°49.462 7.9725 3.43605 32.96212 -0.269263
2010-11-29 08:45:44 51°21.976 2°49.44 7.98 3.448068 33.077477 -0.234439
2010-11-29 08:45:49 51°21.989 2°49.419 7.9972 3.450176 33.088844 -0.234439
2010-11-29 08:45:54 51°22 2°49.396 8.0041 3.451019 33.08832 -0.269263
2010-11-29 08:45:59 51°22.012 2°49.374 8.0375 3.449122 33.060995 -0.269263
2010-11-29 08:46:04 51°22.022 2°49.349 8.0553 3.453549 33.102584 -0.304087
2010-11-29 08:46:09 51°22.035 2°49.328 8.085 3.453549 33.102584 -0.304087
2010-11-29 08:46:14 51°22.045 2°49.304 8.0971 3.448067 33.041078 -0.269263
2010-11-29 08:46:20 51°22.058 2°49.276 8.1281 3.451441 33.073813 -0.269263
2010-11-29 08:46:24 51°22.066 2°49.257 8.1428 3.453971 33.09678 -0.269263
2010-11-29 08:46:29 51°22.078 2°49.234 8.1572 3.45766 33.129709 -0.269263
2010-11-29 08:46:34 51°22.089 2°49.21 8.1632 3.455025 33.085844 -0.269263
2010-11-29 08:46:40 51°22.102 2°49.182 8.1906 3.455025 33.085844 -0.269263
2010-11-29 08:46:44 51°22.11 2°49.163 8.1961 3.463458 33.159702 -0.234439
2010-11-29 08:46:49 51°22.123 2°49.141 8.209 3.464407 33.146041 -0.304087
2010-11-29 08:46:54 51°22.133 2°49.117 8.2117 3.471786 33.2007 -0.269263
2010-11-29 08:46:59 51°22.145 2°49.096 8.2101 3.471048 33.172293 -0.234439
2010-11-29 08:47:05 51°22.159 2°49.068 8.2244 3.478006 33.22083 -0.269263
2010-11-29 08:47:09 51°22.169 2°49.051 8.2157 3.478006 33.22083 -0.269263
2010-11-29 08:47:14 51°22.181 2°49.028 8.2204 3.48159 33.246198 -0.234439
2010-11-29 08:47:19 51°22.193 2°49.007 8.2245 3.48159 33.228798 -0.269263
2010-11-29 08:47:24 51°22.205 2°48.985 8.2247 3.475475 33.148995 -0.304087
2010-11-29 08:47:29 51°22.217 2°48.963 8.2192 3.489285 33.27716 -0.304087
2010-11-29 08:47:34 51°22.229 2°48.942 8.2213 3.490867 33.282843 -0.304087
2010-11-29 08:47:39 51°22.241 2°48.919 8.2224 3.490867 33.282843 -0.304087
2010-11-29 08:47:44 51°22.254 2°48.898 8.214 3.49055 33.270799 -0.304087
2010-11-29 08:47:49 51°22.266 2°48.877 8.2195 3.494873 33.31183 -0.269263
2010-11-29 08:47:54 51°22.277 2°48.854 8.223 3.493502 33.293364 -0.269263
2010-11-29 08:47:59 51°22.29 2°48.833 8.2148 3.492764 33.282389 -0.269263
2010-11-29 08:48:04 51°22.301 2°48.81 8.2123 3.495927 33.312712 -0.304087
2010-11-29 08:48:09 51°22.314 2°48.788 8.2074 3.495927 33.312712 -0.304087
2010-11-29 08:48:14 51°22.325 2°48.766 8.2153 3.488652 33.236498 -0.269263
2010-11-29 08:48:19 51°22.337 2°48.744 8.2018 3.497087 33.3242 -0.269263
2010-11-29 08:48:24 51°22.349 2°48.722 8.2125 3.496665 33.319735 -0.234439
2010-11-29 08:48:29 51°22.361 2°48.701 8.2038 3.487704 33.224878 -0.234439
2010-11-29 08:48:34 51°22.372 2°48.678 8.196 3.497192 33.324525 -0.234439
2010-11-29 08:48:40 51°22.387 2°48.652 8.1873 3.497192 33.324525 -0.234439
2010-11-29 08:48:44 51°22.396 2°48.634 8.1794 3.487704 33.226455 -0.234439
2010-11-29 08:48:49 51°22.409 2°48.612 8.1722 3.493924 33.294667 -0.269263
2010-11-29 08:48:54 51°22.42 2°48.59 8.1733 3.490656 33.260858 -0.269263
2010-11-29 08:48:59 51°22.432 2°48.568 8.174 3.487071 33.223704 -0.304087
2010-11-29 08:49:05 51°22.447 2°48.542 8.17 3.494978 33.308992 -0.269263
2010-11-29 08:49:09 51°22.456 2°48.525 8.1668 3.494978 33.308992 -0.269263
2010-11-29 08:49:14 51°22.468 2°48.503 8.1601 3.495927 33.322204 -0.269263
2010-11-29 08:49:19 51°22.48 2°48.48 8.1586 3.492448 33.289315 -0.234439
2010-11-29 08:49:25 51°22.495 2°48.455 8.1626 3.486755 33.236927 -0.269263
2010-11-29 08:49:29 51°22.504 2°48.436 8.1669 3.492764 33.306901 -0.269263
2010-11-29 08:49:34 51°22.516 2°48.413 8.1655 3.487809 33.259151 -0.269263
2010-11-29 08:49:39 51°22.529 2°48.393 8.1719 3.487809 33.259151 -0.269263
2010-11-29 08:49:44 51°22.54 2°48.369 8.1732 3.493924 33.325522 -0.269263
2010-11-29 08:49:49 51°22.552 2°48.347 8.1728 3.488864 33.276646 -0.269263
2010-11-29 08:49:54 51°22.564 2°48.324 8.1723 3.49171 33.309186 -0.234439
2010-11-29 08:49:59 51°22.576 2°48.302 8.179 3.488548 33.279622 -0.269263
2010-11-29 08:50:04 51°22.587 2°48.279 8.1822 3.492132 33.317615 -0.234439
2010-11-29 08:50:09 51°22.599 2°48.257 8.1844 3.492132 33.317615 -0.234439
2010-11-29 08:50:14 51°22.611 2°48.234 8.1815 3.486861 33.263327 -0.269263
2010-11-29 08:50:19 51°22.623 2°48.213 8.1858 3.49034 33.298618 -0.269263
2010-11-29 08:50:24 51°22.636 2°48.191 8.1768 3.489813 33.289074 -0.234439
2010-11-29 08:50:29 51°22.649 2°48.17 8.1833 3.48802 33.270081 -0.234439
2010-11-29 08:50:34 51°22.662 2°48.148 8.1882 3.493502 33.325013 -0.269263
2010-11-29 08:50:39 51°22.675 2°48.127 8.1862 3.493502 33.325013 -0.269263
2010-11-29 08:50:44 51°22.686 2°48.105 8.1843 3.493819 33.325197 -0.269263
2010-11-29 08:50:49 51°22.7 2°48.084 8.1926 3.49171 33.30127 -0.269263
2010-11-29 08:50:54 51°22.712 2°48.063 8.1931 3.49034 33.285958 -0.269263
2010-11-29 08:50:59 51°22.725 2°48.042 8.1957 3.49424 33.324915 -0.269263
2010-11-29 08:51:05 51°22.741 2°48.016 8.2068 3.495927 33.340413 -0.234439
2010-11-29 08:51:09 51°22.751 2°47.999 8.1975 3.495927 33.340413 -0.234439
2010-11-29 08:51:14 51°22.765 2°47.979 8.2013 3.494978 33.330359 -0.269263
2010-11-29 08:51:19 51°22.778 2°47.956 8.2022 3.491816 33.295267 -0.234439
2010-11-29 08:51:25 51°22.794 2°47.931 8.2025 3.491078 33.28824 -0.234439
2010-11-29 08:51:29 51°22.804 2°47.913 8.2039 3.496138 33.337894 -0.269263
2010-11-29 08:51:34 51°22.816 2°47.892 8.1983 3.492132 33.293872 -0.269263
2010-11-29 08:51:39 51°22.83 2°47.871 8.1943 3.492132 33.293872 -0.269263
2010-11-29 08:51:44 51°22.842 2°47.849 8.1933 3.497087 33.340819 -0.269263
2010-11-29 08:51:49 51°22.855 2°47.827 8.1972 3.498879 33.358221 -0.269263
2010-11-29 08:51:54 51°22.869 2°47.806 8.2006 3.49171 33.283871 -0.234439
2010-11-29 08:51:59 51°22.88 2°47.785 8.2032 3.497614 33.343236 -0.234439
2010-11-29 08:52:04 51°22.892 2°47.762 8.1983 3.497403 33.341002 -0.234439
2010-11-29 08:52:09 51°22.905 2°47.74 8.1937 3.497403 33.341002 -0.234439
2010-11-29 08:52:14 51°22.917 2°47.718 8.1891 3.490656 33.269545 -0.234439
2010-11-29 08:52:19 51°22.928 2°47.695 8.1893 3.499933 33.368597 -0.234439
2010-11-29 08:52:24 51°22.941 2°47.673 8.1864 3.499512 33.364922 -0.234439
2010-11-29 08:52:29 51°22.953 2°47.652 8.1836 3.499722 33.370326 -0.199615
2010-11-29 08:52:34 51°22.964 2°47.629 8.1801 3.498246 33.349144 -0.269263
2010-11-29 08:52:39 51°22.976 2°47.607 8.174 3.498246 33.349144 -0.269263
2010-11-29 08:52:44 51°22.989 2°47.585 8.1718 3.499617 33.363662 -0.269263
2010-11-29 08:52:49 51°23.001 2°47.562 8.1722 3.502569 33.39652 -0.269263
2010-11-29 08:52:54 51°23.013 2°47.54 8.1713 3.497087 33.340819 -0.304087
2010-11-29 08:52:59 51°23.024 2°47.517 8.1755 3.497403 33.347338 -0.269263
2010-11-29 08:53:04 51°23.037 2°47.495 8.1713 3.491499 33.287962 -0.199615
2010-11-29 08:53:09 51°23.048 2°47.472 8.1732 3.491499 33.287962 -0.199615
2010-11-29 08:53:14 51°23.061 2°47.451 8.1791 3.499406 33.374109 -0.269263
2010-11-29 08:53:19 51°23.072 2°47.428 8.1808 3.496033 33.34153 -0.234439
2010-11-29 08:53:25 51°23.087 2°47.401 8.1889 3.495084 33.335436 -0.234439
2010-11-29 08:53:29 51°23.096 2°47.381 8.1884 3.49793 33.366395 -0.234439
2010-11-29 08:53:34 51°23.108 2°47.359 8.1904 3.492764 33.314817 -0.269263
2010-11-29 08:53:39 51°23.12 2°47.338 8.1882 3.492764 33.314817 -0.269263
2010-11-29 08:53:45 51°23.133 2°47.31 8.1924 3.491394 33.299502 -0.269263
2010-11-29 08:53:49 51°23.142 2°47.291 8.1881 3.500566 33.396713 -0.269263
2010-11-29 08:53:54 51°23.156 2°47.27 8.1873 3.49034 33.286749 -0.269263
2010-11-29 08:53:59 51°23.167 2°47.246 8.19 3.498985 33.37757 -0.269263
2010-11-29 08:54:05 51°23.181 2°47.22 8.1883 3.499723 33.380633 -0.269263
2010-11-29 08:54:09 51°23.19 2°47.2 8.1922 3.499723 33.380633 -0.269263
2010-11-29 08:54:14 51°23.202 2°47.178 8.1903 3.499933 33.379695 -0.269263
2010-11-29 08:54:19 51°23.215 2°47.156 8.195 3.49424 33.316998 -0.269263
2010-11-29 08:54:24 51°23.225 2°47.132 8.1955 3.498879 33.366938 -0.269263
2010-11-29 08:54:29 51°23.235 2°47.109 8.1931 3.501304 33.39184 -0.269263
2010-11-29 08:54:34 51°23.248 2°47.087 8.2026 3.492132 33.294663 -0.234439
2010-11-29 08:54:39 51°23.258 2°47.062 8.2082 3.492132 33.294663 -0.234439
2010-11-29 08:54:44 51°23.27 2°47.039 8.2075 3.493819 33.312531 -0.234439
2010-11-29 08:54:49 51°23.282 2°47.017 8.2118 3.498984 33.364092 -0.234439
2010-11-29 08:54:54 51°23.294 2°46.993 8.2136 3.500039 33.376848 -0.234439
2010-11-29 08:54:59 51°23.306 2°46.971 8.2198 3.500144 33.374794 -0.234439
2010-11-29 08:55:04 51°23.318 2°46.947 8.2229 3.494767 33.317043 -0.234439
2010-11-29 08:55:09 51°23.33 2°46.925 8.2248 3.494767 33.317043 -0.234439
2010-11-29 08:55:14 51°23.343 2°46.904 8.2438 3.501936 33.391404 -0.199615
2010-11-29 08:55:19 51°23.354 2°46.88 8.2556 3.500671 33.375622 -0.234439
2010-11-29 08:55:24 51°23.367 2°46.858 8.2731 3.498879 33.351885 -0.269263
2010-11-29 08:55:29 51°23.379 2°46.835 8.2773 3.503096 33.394174 -0.234439
2010-11-29 08:55:34 51°23.391 2°46.812 8.2951 3.504994 33.409517 -0.234439
2010-11-29 08:55:39 51°23.403 2°46.79 8.3077 3.504994 33.409517 -0.234439
2010-11-29 08:55:45 51°23.418 2°46.762 8.3264 3.501831 33.372851 -0.269263
2010-11-29 08:55:49 51°23.427 2°46.744 8.356 3.503939 33.389632 -0.269263
2010-11-29 08:55:54 51°23.44 2°46.723 8.3946 3.504361 33.388551 -0.234439
2010-11-29 08:55:59 51°23.451 2°46.699 8.4644 3.50531 33.385923 -0.269263
2010-11-29 08:56:05 51°23.465 2°46.672 8.5383 3.512162 33.446561 -0.234439
2010-11-29 08:56:09 51°23.475 2°46.653 8.5673 3.512162 33.446561 -0.234439
2010-11-29 08:56:14 51°23.486 2°46.629 8.6334 3.509948 33.408083 -0.234439
2010-11-29 08:56:19 51°23.497 2°46.607 8.6822 3.50921 33.389992 -0.234439
2010-11-29 08:56:25 51°23.511 2°46.578 8.7133 3.508894 33.366099 -0.234439
2010-11-29 08:56:29 51°23.52 2°46.56 8.7357 3.508788 33.34604 -0.234439
2010-11-29 08:56:34 51°23.531 2°46.536 8.7717 3.518171 33.410375 -0.234439
2010-11-29 08:56:39 51°23.543 2°46.514 8.7994 3.518171 33.410375 -0.234439
2010-11-29 08:56:44 51°23.553 2°46.489 8.8125 3.527343 33.458971 -0.199615
2010-11-29 08:56:49 51°23.566 2°46.466 8.8317 3.532719 33.462772 -0.199615
2010-11-29 08:56:54 51°23.576 2°46.441 8.8471 3.541469 33.490247 -0.199615
2010-11-29 08:56:59 51°23.588 2°46.419 8.8579 3.550114 33.534646 -0.234439
2010-11-29 08:57:04 51°23.599 2°46.395 8.8678 3.559919 33.590342 -0.199615
2010-11-29 08:57:09 51°23.61 2°46.371 8.8539 3.559919 33.590342 -0.199615
2010-11-29 08:57:14 51°23.622 2°46.347 8.8866 3.559919 33.553392 -0.199615
2010-11-29 08:57:19 51°23.631 2°46.322 8.8846 3.570884 33.62662 -0.164791
2010-11-29 08:57:24 51°23.643 2°46.3 8.9044 3.567299 33.561633 -0.199615
2010-11-29 08:57:29 51°23.654 2°46.276 8.9099 3.57489 33.615157 -0.199615
2010-11-29 08:57:34 51°23.664 2°46.251 8.8821 3.576893 33.611012 -0.234439
2010-11-29 08:57:39 51°23.677 2°46.229 8.9265 3.576893 33.611012 -0.234439
2010-11-29 08:57:44 51°23.687 2°46.205 8.9245 3.577104 33.592855 -0.199615
2010-11-29 08:57:49 51°23.699 2°46.181 8.931 3.582376 33.641646 -0.199615
2010-11-29 08:57:54 51°23.709 2°46.157 8.9443 3.587753 33.682904 -0.199615
2010-11-29 08:57:59 51°23.72 2°46.133 8.9409 3.592181 33.720512 -0.199615
2010-11-29 08:58:05 51°23.733 2°46.104 8.9363 3.595239 33.738304 -0.234439
2010-11-29 08:58:09 51°23.743 2°46.086 8.9459 3.595239 33.738304 -0.234439
2010-11-29 08:58:14 51°23.754 2°46.063 8.9485 3.594817 33.724488 -0.199615
2010-11-29 08:58:19 51°23.765 2°46.038 8.9499 3.591865 33.682717 -0.234439
2010-11-29 08:58:25 51°23.779 2°46.011 8.9397 3.592497 33.683051 -0.199615
2010-11-29 08:58:29 51°23.787 2°45.99 8.9564 3.594395 33.696577 -0.234439
2010-11-29 08:58:34 51°23.799 2°45.968 8.9692 3.60146 33.761619 -0.199615
2010-11-29 08:58:39 51°23.81 2°45.943 8.9702 3.60146 33.761619 -0.199615
2010-11-29 08:58:44 51°23.821 2°45.92 8.9637 3.594606 33.687034 -0.199615
2010-11-29 08:58:49 51°23.832 2°45.896 8.9862 3.602409 33.762886 -0.234439
2010-11-29 08:58:54 51°23.843 2°45.872 9.0005 3.603252 33.764622 -0.234439
2010-11-29 08:58:59 51°23.852 2°45.847 9.0056 3.604939 33.781423 -0.199615
2010-11-29 08:59:04 51°23.863 2°45.823 9.0216 3.603147 33.759604 -0.234439
2010-11-29 08:59:09 51°23.873 2°45.798 9.0327 3.603147 33.759604 -0.234439
2010-11-29 08:59:14 51°23.884 2°45.775 9.0417 3.602408 33.743293 -0.234439
2010-11-29 08:59:19 51°23.894 2°45.75 9.0412 3.607575 33.790856 -0.199615
2010-11-29 08:59:24 51°23.906 2°45.728 9.0522 3.598507 33.690138 -0.199615
2010-11-29 08:59:29 51°23.916 2°45.704 9.0565 3.610211 33.806556 -0.199615
2010-11-29 08:59:34 51°23.928 2°45.681 9.0735 3.60515 33.744446 -0.199615
2010-11-29 08:59:39 51°23.939 2°45.657 9.0655 3.60515 33.744446 -0.199615
2010-11-29 08:59:44 51°23.951 2°45.634 9.0966 3.612952 33.814721 -0.199615
2010-11-29 08:59:49 51°23.961 2°45.61 9.102 3.616643 33.838244 -0.199615
2010-11-29 08:59:54 51°23.972 2°45.586 9.0993 3.616221 33.822098 -0.199615
2010-11-29 08:59:59 51°23.984 2°45.562 9.0948 3.619489 33.84357 -0.199615
2010-11-29 09:00:05 51°23.997 2°45.533 9.1095 3.621387 33.854692 -0.234439
2010-11-29 09:00:09 51°24.006 2°45.514 9.1176 3.621387 33.854692 -0.234439
2010-11-29 09:00:14 51°24.018 2°45.49 9.1216 3.620755 33.840279 -0.199615
2010-11-29 09:00:19 51°24.028 2°45.467 9.1186 3.620965 33.834643 -0.199615
2010-11-29 09:00:25 51°24.042 2°45.439 9.1316 3.626554 33.88334 -0.199615
2010-11-29 09:00:29 51°24.05 2°45.42 9.129 3.625605 33.863294 -0.234439
2010-11-29 09:00:34 51°24.062 2°45.397 9.1298 3.619172 33.789431 -0.234439
2010-11-29 09:00:39 51°24.072 2°45.372 9.1403 3.619172 33.789431 -0.234439
2010-11-29 09:00:45 51°24.085 2°45.345 9.1292 3.624972 33.841853 -0.269263
2010-11-29 09:00:49 51°24.094 2°45.326 9.1557 3.622547 33.811976 -0.199615
2010-11-29 09:00:54 51°24.103 2°45.301 9.1544 3.632458 33.907091 -0.234439
2010-11-29 09:00:59 51°24.115 2°45.278 9.1514 3.633407 33.909898 -0.199615
2010-11-29 09:01:04 51°24.124 2°45.253 9.1561 3.626448 33.833732 -0.234439
2010-11-29 09:01:09 51°24.136 2°45.23 9.153 3.626448 33.833732 -0.234439
2010-11-29 09:01:14 51°24.146 2°45.204 9.1555 3.633302 33.899408 -0.234439
2010-11-29 09:01:19 51°24.157 2°45.181 9.1618 3.633724 33.899091 -0.164791
2010-11-29 09:01:24 51°24.167 2°45.156 9.1725 3.637941 33.940528 -0.199615
2010-11-29 09:01:29 51°24.177 2°45.131 9.1788 3.638469 33.938167 -0.234439
2010-11-29 09:01:34 51°24.188 2°45.107 9.1823 3.638258 33.93128 -0.199615
2010-11-29 09:01:39 51°24.198 2°45.082 9.1814 3.638258 33.93128 -0.199615
2010-11-29 09:01:44 51°24.209 2°45.057 9.1856 3.639839 33.943779 -0.199615
2010-11-29 09:01:49 51°24.218 2°45.031 9.1823 3.640156 33.944713 -0.164791
2010-11-29 09:01:54 51°24.228 2°45.006 9.1882 3.64005 33.942053 -0.199615
2010-11-29 09:01:59 51°24.236 2°44.98 9.1848 3.641843 33.957521 -0.164791
2010-11-29 09:02:04 51°24.246 2°44.955 9.1897 3.638468 33.914689 -0.199615
2010-11-29 09:02:09 51°24.254 2°44.928 9.1845 3.638468 33.914689 -0.199615
2010-11-29 09:02:14 51°24.263 2°44.904 9.1787 3.64469 33.973743 -0.199615
2010-11-29 09:02:19 51°24.272 2°44.88 9.211 3.643846 33.961077 -0.234439
2010-11-29 09:02:25 51°24.282 2°44.85 9.2124 3.645639 33.976537 -0.199615
2010-11-29 09:02:29 51°24.288 2°44.831 9.2142 3.646588 33.983247 -0.199615
2010-11-29 09:02:34 51°24.297 2°44.808 9.2081 3.642897 33.942627 -0.234439
2010-11-29 09:02:39 51°24.305 2°44.785 9.2191 3.642897 33.942627 -0.234439
2010-11-29 09:02:45 51°24.314 2°44.757 9.223 3.64722 33.985892 -0.234439
2010-11-29 09:02:49 51°24.32 2°44.74 9.2162 3.643951 33.950431 -0.234439
2010-11-29 09:02:54 51°24.327 2°44.718 9.225 3.64374 33.945898 -0.199615
2010-11-29 09:02:59 51°24.334 2°44.699 9.2338 3.647009 33.975875 -0.199615
2010-11-29 09:03:04 51°24.34 2°44.678 9.234 3.649013 33.9896 -0.199615
2010-11-29 09:03:09 51°24.347 2°44.66 9.2364 3.649013 33.9896 -0.199615
2010-11-29 09:03:14 51°24.353 2°44.641 9.2376 3.650489 33.998639 -0.234439
2010-11-29 09:03:19 51°24.36 2°44.624 9.2342 3.649224 33.980828 -0.164791
2010-11-29 09:03:24 51°24.365 2°44.606 9.2444 3.651016 33.996274 -0.199615
2010-11-29 09:03:29 51°24.371 2°44.589 9.2503 3.652282 34.007039 -0.199615
2010-11-29 09:03:34 51°24.377 2°44.573 9.2508 3.652703 34.007495 -0.164791
2010-11-29 09:03:39 51°24.383 2°44.557 9.2538 3.652703 34.007495 -0.164791
2010-11-29 09:03:44 51°24.389 2°44.54 9.2541 3.653125 34.006386 -0.199615
2010-11-29 09:03:49 51°24.394 2°44.524 9.2537 3.654074 34.012305 -0.199615
2010-11-29 09:03:54 51°24.4 2°44.509 9.2562 3.654707 34.016511 -0.199615
2010-11-29 09:03:59 51°24.405 2°44.493 9.2648 3.655339 34.020716 -0.199615
2010-11-29 09:04:05 51°24.411 2°44.474 9.2662 3.656183 34.02554 -0.199615
2010-11-29 09:04:09 51°24.415 2°44.462 9.2654 3.656183 34.02554 -0.199615
2010-11-29 09:04:14 51°24.42 2°44.447 9.2711 3.656077 34.020535 -0.234439
2010-11-29 09:04:20 51°24.426 2°44.429 9.2714 3.656816 34.025831 -0.199615
2010-11-29 09:04:24 51°24.431 2°44.417 9.2709 3.656605 34.019735 -0.164791
2010-11-29 09:04:29 51°24.436 2°44.402 9.2709 3.657765 34.030964 -0.164791
2010-11-29 09:04:34 51°24.442 2°44.388 9.2735 3.658397 34.034384 -0.199615
2010-11-29 09:04:39 51°24.447 2°44.373 9.2761 3.658397 34.034384 -0.199615
2010-11-29 09:04:45 51°24.453 2°44.355 9.2738 3.659241 34.039206 -0.199615
2010-11-29 09:04:49 51°24.457 2°44.343 9.28 3.659452 34.038259 -0.234439
2010-11-29 09:04:54 51°24.461 2°44.328 9.2797 3.659663 34.037312 -0.199615
2010-11-29 09:04:59 51°24.465 2°44.312 9.2755 3.661139 34.051029 -0.199615
2010-11-29 09:05:05 51°24.468 2°44.294 9.2834 3.661455 34.052739 -0.164791
2010-11-29 09:05:09 51°24.47 2°44.282 9.2865 3.661455 34.052739 -0.164791
2010-11-29 09:05:14 51°24.472 2°44.266 9.2863 3.660401 34.040258 -0.164791
2010-11-29 09:05:19 51°24.474 2°44.251 9.2903 3.661877 34.053974 -0.164791
2010-11-29 09:05:25 51°24.476 2°44.232 9.2903 3.661982 34.055065 -0.199615
2010-11-29 09:05:29 51°24.477 2°44.22 9.291 3.663037 34.062849 -0.199615
2010-11-29 09:05:34 51°24.478 2°44.205 9.2935 3.662721 34.05801 -0.234439
2010-11-29 09:05:39 51°24.48 2°44.19 9.2929 3.662721 34.05801 -0.234439